Wetterdaten: Samstag, 08.08.2015
Datum Zeit Temp. Aussen +5cm Feuchte Auss BlattFeu 1 Luftdruck Regen Sonnenschein Regendauer Solar Windben
08.08.2015 00:00 23,8 C 20,0 C 86 % 15 lf 1018,6 hPa 0,0 l/m 0 min 2 min 0 W/m 6,3 km/h (2 Bft)
08.08.2015 00:04 23,7 C 20,0 C 86 % 15 lf 1018,3 hPa 0,0 l/m 0 min 2 min 0 W/m 6,3 km/h (2 Bft)
08.08.2015 00:06 23,7 C 20,0 C 86 % 15 lf 1017,4 hPa 0,0 l/m 0 min 2 min 0 W/m 12,6 km/h (3 Bft)
08.08.2015 00:10 23,6 C 20,0 C 87 % 15 lf 1016,7 hPa 0,2 l/m 0 min 2 min 0 W/m 16,7 km/h (3 Bft)
08.08.2015 00:12 23,5 C 20,0 C 87 % 15 lf 1016,6 hPa 0,0 l/m 0 min 2 min 0 W/m 20,9 km/h (4 Bft)
08.08.2015 00:14 23,4 C 20,0 C 88 % 15 lf 1016,3 hPa 0,0 l/m 0 min 2 min 0 W/m 20,9 km/h (4 Bft)
08.08.2015 00:16 23,3 C 20,0 C 88 % 15 lf 1015,6 hPa 0,0 l/m 0 min 2 min 0 W/m 25,1 km/h (4 Bft)
08.08.2015 00:18 23,2 C 20,0 C 88 % 15 lf 1015,5 hPa 0,0 l/m 0 min 2 min 0 W/m 33,5 km/h (5 Bft)
08.08.2015 00:20 23,1 C 20,0 C 89 % 15 lf 1015,5 hPa 0,2 l/m 0 min 2 min 0 W/m 23,0 km/h (4 Bft)
08.08.2015 00:22 23,0 C 20,0 C 89 % 15 lf 1015,5 hPa 0,0 l/m 0 min 2 min 0 W/m 27,2 km/h (4 Bft)
08.08.2015 00:24 22,9 C 20,0 C 89 % 15 lf 1015,5 hPa 0,0 l/m 0 min 2 min 0 W/m 31,4 km/h (5 Bft)
08.08.2015 00:26 22,8 C 20,0 C 90 % 15 lf 1015,4 hPa 0,0 l/m 0 min 2 min 0 W/m 33,5 km/h (5 Bft)
08.08.2015 00:28 22,8 C 20,0 C 90 % 15 lf 1015,2 hPa 0,0 l/m 0 min 2 min 0 W/m 29,3 km/h (5 Bft)
08.08.2015 00:30 22,7 C 20,0 C 90 % 15 lf 1015,2 hPa 0,0 l/m 0 min 2 min 0 W/m 27,2 km/h (4 Bft)
08.08.2015 00:32 22,6 C 20,0 C 90 % 15 lf 1015,2 hPa 0,0 l/m 0 min 2 min 0 W/m 23,0 km/h (4 Bft)
08.08.2015 00:34 22,6 C 20,0 C 91 % 15 lf 1015,2 hPa 0,2 l/m 0 min 2 min 0 W/m 23,0 km/h (4 Bft)
08.08.2015 00:36 22,6 C 20,0 C 91 % 15 lf 1015,4 hPa 0,0 l/m 0 min 2 min 0 W/m 20,9 km/h (4 Bft)
08.08.2015 00:38 22,5 C 20,0 C 91 % 15 lf 1015,5 hPa 0,0 l/m 0 min 2 min 0 W/m 14,6 km/h (3 Bft)
08.08.2015 00:40 22,5 C 20,0 C 91 % 15 lf 1016,1 hPa 0,0 l/m 0 min 2 min 0 W/m 12,6 km/h (3 Bft)
08.08.2015 00:42 22,4 C 20,0 C 91 % 15 lf 1016,3 hPa 0,0 l/m 0 min 2 min 0 W/m 6,3 km/h (2 Bft)
08.08.2015 00:44 22,4 C 20,0 C 91 % 15 lf 1016,5 hPa 0,0 l/m 0 min 2 min 0 W/m 10,5 km/h (2 Bft)
08.08.2015 00:46 22,4 C 20,0 C 91 % 15 lf 1016,6 hPa 0,2 l/m 0 min 2 min 0 W/m 6,3 km/h (2 Bft)
08.08.2015 00:48 22,4 C 20,0 C 92 % 15 lf 1016,8 hPa 0,4 l/m 0 min 2 min 0 W/m 6,3 km/h (2 Bft)
08.08.2015 00:50 22,4 C 20,0 C 92 % 15 lf 1016,9 hPa 0,4 l/m 0 min 2 min 0 W/m 6,3 km/h (2 Bft)
08.08.2015 00:52 22,4 C 20,0 C 92 % 15 lf 1016,9 hPa 0,4 l/m 0 min 2 min 0 W/m 8,4 km/h (2 Bft)
08.08.2015 00:54 22,4 C 20,0 C 92 % 15 lf 1017,0 hPa 0,0 l/m 0 min 2 min 0 W/m 12,6 km/h (3 Bft)
08.08.2015 00:56 22,3 C 20,0 C 92 % 15 lf 1016,9 hPa 0,2 l/m 0 min 2 min 0 W/m 14,6 km/h (3 Bft)
08.08.2015 00:58 22,3 C 20,0 C 92 % 15 lf 1016,7 hPa 0,4 l/m 0 min 2 min 0 W/m 14,6 km/h (3 Bft)
08.08.2015 01:00 22,3 C 20,0 C 92 % 15 lf 1016,2 hPa 0,4 l/m 0 min 2 min 0 W/m 16,7 km/h (3 Bft)
08.08.2015 01:02 22,3 C 20,0 C 93 % 15 lf 1016,2 hPa 0,2 l/m 0 min 2 min 0 W/m 23,0 km/h (4 Bft)
08.08.2015 01:04 22,2 C 20,0 C 93 % 15 lf 1016,1 hPa 0,2 l/m 0 min 2 min 0 W/m 23,0 km/h (4 Bft)
08.08.2015 01:06 22,2 C 20,0 C 93 % 15 lf 1015,9 hPa 0,0 l/m 0 min 2 min 0 W/m 20,9 km/h (4 Bft)
08.08.2015 01:08 22,1 C 19,4 C 93 % 15 lf 1015,5 hPa 0,2 l/m 0 min 2 min 0 W/m 29,3 km/h (5 Bft)
08.08.2015 01:10 22,1 C 19,4 C 93 % 15 lf 1015,4 hPa 0,0 l/m 0 min 2 min 0 W/m 23,0 km/h (4 Bft)
08.08.2015 01:12 22,0 C 19,4 C 93 % 15 lf 1015,3 hPa 0,0 l/m 0 min 2 min 0 W/m 27,2 km/h (4 Bft)
08.08.2015 01:14 21,9 C 19,4 C 93 % 15 lf 1015,5 hPa 0,0 l/m 0 min 2 min 0 W/m 16,7 km/h (3 Bft)
08.08.2015 01:16 21,9 C 19,4 C 94 % 15 lf 1015,9 hPa 0,0 l/m 0 min 0 min 0 W/m 10,5 km/h (2 Bft)
08.08.2015 01:18 21,8 C 19,4 C 94 % 15 lf 1016,1 hPa 0,0 l/m 0 min 0 min 0 W/m 12,6 km/h (3 Bft)
08.08.2015 01:20 21,8 C 19,4 C 94 % 15 lf 1016,1 hPa 0,0 l/m 0 min 0 min 0 W/m 12,6 km/h (3 Bft)
08.08.2015 01:22 21,8 C 19,4 C 94 % 15 lf 1016,2 hPa 0,0 l/m 0 min 0 min 0 W/m 6,3 km/h (2 Bft)
08.08.2015 01:24 21,7 C 19,4 C 94 % 15 lf 1016,4 hPa 0,0 l/m 0 min 0 min 0 W/m 4,2 km/h (1 Bft)
08.08.2015 01:26 21,7 C 19,4 C 94 % 15 lf 1016,7 hPa 0,0 l/m 0 min 0 min 0 W/m 6,3 km/h (2 Bft)
08.08.2015 01:28 21,7 C 19,4 C 94 % 15 lf 1016,6 hPa 0,0 l/m 0 min 0 min 0 W/m 2,1 km/h (1 Bft)
08.08.2015 01:30 21,6 C 19,4 C 94 % 15 lf 1016,7 hPa 0,0 l/m 0 min 0 min 0 W/m 4,2 km/h (1 Bft)
08.08.2015 01:32 21,6 C 19,4 C 94 % 15 lf 1016,9 hPa 0,0 l/m 0 min 0 min 0 W/m 6,3 km/h (2 Bft)
08.08.2015 01:34 21,6 C 19,4 C 94 % 15 lf 1017,1 hPa 0,0 l/m 0 min 0 min 0 W/m 8,4 km/h (2 Bft)
08.08.2015 01:36 21,6 C 19,4 C 94 % 15 lf 1017,2 hPa 0,0 l/m 0 min 0 min 0 W/m 10,5 km/h (2 Bft)
08.08.2015 01:38 21,5 C 19,4 C 94 % 15 lf 1017,0 hPa 0,0 l/m 0 min 0 min 0 W/m 6,3 km/h (2 Bft)
08.08.2015 01:40 21,5 C 19,4 C 94 % 15 lf 1016,8 hPa 0,0 l/m 0 min 0 min 0 W/m 4,2 km/h (1 Bft)
08.08.2015 01:42 21,4 C 19,4 C 94 % 15 lf 1016,9 hPa 0,0 l/m 0 min 0 min 0 W/m 8,4 km/h (2 Bft)
08.08.2015 01:44 21,4 C 19,4 C 94 % 15 lf 1016,9 hPa 0,0 l/m 0 min 0 min 0 W/m 8,4 km/h (2 Bft)
08.08.2015 01:46 21,4 C 19,4 C 94 % 15 lf 1016,8 hPa 0,0 l/m 0 min 0 min 0 W/m 8,4 km/h (2 Bft)
08.08.2015 01:48 21,4 C 19,4 C 94 % 15 lf 1016,8 hPa 0,0 l/m 0 min 0 min 0 W/m 4,2 km/h (1 Bft)
08.08.2015 01:50 21,3 C 19,4 C 94 % 15 lf 1016,8 hPa 0,0 l/m 0 min 0 min 0 W/m 4,2 km/h (1 Bft)
08.08.2015 01:52 21,3 C 19,4 C 94 % 15 lf 1016,6 hPa 0,0 l/m 0 min 0 min 0 W/m 6,3 km/h (2 Bft)
08.08.2015 01:54 21,3 C 18,9 C 94 % 15 lf 1016,4 hPa 0,0 l/m 0 min 0 min 0 W/m 10,5 km/h (2 Bft)
08.08.2015 01:56 21,3 C 18,9 C 94 % 15 lf 1016,3 hPa 0,0 l/m 0 min 0 min 0 W/m 10,5 km/h (2 Bft)
08.08.2015 01:58 21,2 C 18,9 C 94 % 15 lf 1016,5 hPa 0,0 l/m 0 min 0 min 0 W/m 6,3 km/h (2 Bft)
08.08.2015 02:00 21,2 C 18,9 C 94 % 15 lf 1016,4 hPa 0,0 l/m 0 min 0 min 0 W/m 6,3 km/h (2 Bft)
08.08.2015 02:02 21,2 C 18,9 C 94 % 15 lf 1016,3 hPa 0,0 l/m 0 min 2 min 0 W/m 8,4 km/h (2 Bft)
08.08.2015 02:04 21,1 C 18,9 C 95 % 15 lf 1016,4 hPa 0,0 l/m 0 min 2 min 0 W/m 8,4 km/h (2 Bft)
08.08.2015 02:06 21,1 C 18,9 C 95 % 15 lf 1016,6 hPa 0,2 l/m 0 min 2 min 0 W/m 6,3 km/h (2 Bft)
08.08.2015 02:08 21,1 C 19,4 C 95 % 15 lf 1016,7 hPa 0,4 l/m 0 min 2 min 0 W/m 8,4 km/h (2 Bft)
08.08.2015 02:10 21,1 C 19,4 C 95 % 15 lf 1017,1 hPa 0,0 l/m 0 min 2 min 0 W/m 12,6 km/h (3 Bft)
08.08.2015 02:12 21,1 C 19,4 C 95 % 15 lf 1017,4 hPa 0,6 l/m 0 min 2 min 0 W/m 10,5 km/h (2 Bft)
08.08.2015 02:14 21,1 C 18,9 C 95 % 15 lf 1017,1 hPa 1,2 l/m 0 min 2 min 0 W/m 10,5 km/h (2 Bft)
08.08.2015 02:16 21,0 C 18,9 C 95 % 15 lf 1016,5 hPa 2,0 l/m 0 min 2 min 0 W/m 10,5 km/h (2 Bft)
08.08.2015 02:18 21,0 C 18,9 C 95 % 15 lf 1016,3 hPa 3,0 l/m 0 min 2 min 0 W/m 8,4 km/h (2 Bft)
08.08.2015 02:20 21,0 C 18,9 C 95 % 15 lf 1016,7 hPa 0,2 l/m 0 min 2 min 0 W/m 10,5 km/h (2 Bft)
08.08.2015 02:22 20,9 C 18,9 C 95 % 15 lf 1016,7 hPa 0,4 l/m 0 min 2 min 0 W/m 8,4 km/h (2 Bft)
08.08.2015 02:24 20,9 C 18,9 C 95 % 15 lf 1016,6 hPa 0,0 l/m 0 min 2 min 0 W/m 6,3 km/h (2 Bft)
08.08.2015 02:26 20,9 C 18,9 C 95 % 15 lf 1016,6 hPa 0,0 l/m 0 min 2 min 0 W/m 2,1 km/h (1 Bft)
08.08.2015 02:28 20,8 C 18,9 C 95 % 15 lf 1016,6 hPa 0,0 l/m 0 min 2 min 0 W/m 4,2 km/h (1 Bft)
08.08.2015 02:30 20,8 C 18,9 C 95 % 15 lf 1016,7 hPa 0,0 l/m 0 min 2 min 0 W/m 4,2 km/h (1 Bft)
08.08.2015 02:32 20,8 C 18,9 C 95 % 15 lf 1016,7 hPa 0,0 l/m 0 min 0 min 0 W/m 2,1 km/h (1 Bft)
08.08.2015 02:34 20,8 C 18,9 C 95 % 15 lf 1016,7 hPa 0,0 l/m 0 min 0 min 0 W/m 4,2 km/h (1 Bft)
08.08.2015 02:36 20,7 C 18,9 C 95 % 15 lf 1016,9 hPa 0,0 l/m 0 min 0 min 0 W/m 4,2 km/h (1 Bft)
08.08.2015 02:38 20,7 C 18,9 C 95 % 15 lf 1017,0 hPa 0,0 l/m 0 min 0 min 0 W/m 6,3 km/h (2 Bft)
08.08.2015 02:40 20,7 C 18,9 C 95 % 15 lf 1017,1 hPa 0,0 l/m 0 min 0 min 0 W/m 8,4 km/h (2 Bft)
08.08.2015 02:42 20,7 C 18,9 C 95 % 15 lf 1017,2 hPa 0,0 l/m 0 min 0 min 0 W/m 8,4 km/h (2 Bft)
08.08.2015 02:44 20,7 C 18,9 C 95 % 15 lf 1017,3 hPa 0,0 l/m 0 min 0 min 0 W/m 8,4 km/h (2 Bft)
08.08.2015 02:46 20,6 C 18,9 C 95 % 15 lf 1017,2 hPa 0,0 l/m 0 min 0 min 0 W/m 8,4 km/h (2 Bft)
08.08.2015 02:48 20,6 C 18,9 C 95 % 15 lf 1017,2 hPa 0,0 l/m 0 min 0 min 0 W/m 8,4 km/h (2 Bft)
08.08.2015 02:50 20,6 C 18,9 C 95 % 15 lf 1017,1 hPa 0,0 l/m 0 min 0 min 0 W/m 8,4 km/h (2 Bft)
08.08.2015 02:52 20,6 C 18,3 C 95 % 15 lf 1017,1 hPa 0,0 l/m 0 min 0 min 0 W/m 6,3 km/h (2 Bft)
08.08.2015 02:54 20,5 C 18,3 C 95 % 15 lf 1017,1 hPa 0,0 l/m 0 min 0 min 0 W/m 4,2 km/h (1 Bft)
08.08.2015 02:56 20,5 C 18,3 C 95 % 15 lf 1017,1 hPa 0,0 l/m 0 min 0 min 0 W/m 4,2 km/h (1 Bft)
08.08.2015 02:58 20,4 C 18,3 C 95 % 15 lf 1017,1 hPa 0,0 l/m 0 min 0 min 0 W/m 6,3 km/h (2 Bft)
08.08.2015 03:00 20,4 C 18,3 C 95 % 15 lf 1017,1 hPa 0,0 l/m 0 min 0 min 0 W/m 10,5 km/h (2 Bft)
08.08.2015 03:02 20,4 C 18,3 C 96 % 15 lf 1017,1 hPa 0,0 l/m 0 min 0 min 0 W/m 12,6 km/h (3 Bft)
08.08.2015 03:04 20,4 C 18,9 C 96 % 15 lf 1017,2 hPa 0,0 l/m 0 min 0 min 0 W/m 6,3 km/h (2 Bft)
08.08.2015 03:06 20,4 C 18,9 C 96 % 15 lf 1017,3 hPa 0,0 l/m 0 min 0 min 0 W/m 6,3 km/h (2 Bft)
08.08.2015 03:08 20,4 C 18,9 C 96 % 15 lf 1017,4 hPa 0,0 l/m 0 min 0 min 0 W/m 6,3 km/h (2 Bft)
08.08.2015 03:10 20,4 C 18,9 C 96 % 15 lf 1017,5 hPa 0,0 l/m 0 min 0 min 0 W/m 6,3 km/h (2 Bft)
08.08.2015 03:12 20,4 C 18,9 C 96 % 15 lf 1017,7 hPa 0,0 l/m 0 min 0 min 0 W/m 10,5 km/h (2 Bft)
08.08.2015 03:14 20,3 C 18,9 C 96 % 15 lf 1018,1 hPa 0,0 l/m 0 min 0 min 0 W/m 10,5 km/h (2 Bft)
08.08.2015 03:16 20,3 C 18,9 C 96 % 15 lf 1018,1 hPa 0,0 l/m 0 min 0 min 0 W/m 8,4 km/h (2 Bft)
08.08.2015 03:18 20,3 C 18,9 C 96 % 15 lf 1018,2 hPa 0,0 l/m 0 min 0 min 0 W/m 8,4 km/h (2 Bft)
08.08.2015 03:20 20,3 C 18,9 C 96 % 15 lf 1018,2 hPa 0,0 l/m 0 min 0 min 0 W/m 12,6 km/h (3 Bft)
08.08.2015 03:22 20,3 C 18,9 C 96 % 15 lf 1018,3 hPa 0,0 l/m 0 min 0 min 0 W/m 10,5 km/h (2 Bft)
08.08.2015 03:24 20,3 C 18,9 C 96 % 15 lf 1018,3 hPa 0,0 l/m 0 min 0 min 0 W/m 6,3 km/h (2 Bft)
08.08.2015 03:26 20,3 C 18,9 C 96 % 15 lf 1018,4 hPa 0,0 l/m 0 min 0 min 0 W/m 10,5 km/h (2 Bft)
08.08.2015 03:28 20,3 C 18,9 C 96 % 15 lf 1018,6 hPa 0,2 l/m 0 min 2 min 0 W/m 8,4 km/h (2 Bft)
08.08.2015 03:30 20,3 C 18,9 C 96 % 15 lf 1018,9 hPa 0,2 l/m 0 min 2 min 0 W/m 12,6 km/h (3 Bft)
08.08.2015 03:32 20,3 C 18,9 C 96 % 15 lf 1019,1 hPa 0,8 l/m 0 min 2 min 0 W/m 12,6 km/h (3 Bft)
08.08.2015 03:34 20,3 C 18,9 C 96 % 15 lf 1019,1 hPa 0,6 l/m 0 min 2 min 0 W/m 8,4 km/h (2 Bft)
08.08.2015 03:36 20,2 C 18,3 C 96 % 15 lf 1019,1 hPa 1,0 l/m 0 min 2 min 0 W/m 6,3 km/h (2 Bft)
08.08.2015 03:38 20,2 C 18,3 C 96 % 15 lf 1018,8 hPa 0,8 l/m 0 min 2 min 0 W/m 4,2 km/h (1 Bft)
08.08.2015 03:40 20,2 C 18,3 C 96 % 15 lf 1018,7 hPa 0,2 l/m 0 min 2 min 0 W/m 4,2 km/h (1 Bft)
08.08.2015 03:42 20,2 C 18,3 C 96 % 15 lf 1018,5 hPa 0,2 l/m 0 min 2 min 0 W/m 2,1 km/h (1 Bft)
08.08.2015 03:44 20,2 C 18,3 C 96 % 15 lf 1018,7 hPa 0,0 l/m 0 min 2 min 0 W/m 8,4 km/h (2 Bft)
08.08.2015 03:46 20,2 C 18,3 C 96 % 15 lf 1018,7 hPa 0,2 l/m 0 min 2 min 0 W/m 6,3 km/h (2 Bft)
08.08.2015 03:48 20,2 C 18,3 C 96 % 15 lf 1018,7 hPa 0,0 l/m 0 min 2 min 0 W/m 6,3 km/h (2 Bft)
08.08.2015 03:50 20,2 C 18,3 C 96 % 15 lf 1018,7 hPa 0,0 l/m 0 min 2 min 0 W/m 8,4 km/h (2 Bft)
08.08.2015 03:52 20,2 C 18,3 C 96 % 15 lf 1018,6 hPa 0,0 l/m 0 min 2 min 0 W/m 6,3 km/h (2 Bft)
08.08.2015 03:54 20,2 C 18,3 C 96 % 15 lf 1018,5 hPa 0,0 l/m 0 min 0 min 0 W/m 8,4 km/h (2 Bft)
08.08.2015 03:56 20,1 C 18,3 C 96 % 15 lf 1018,4 hPa 0,0 l/m 0 min 0 min 0 W/m 8,4 km/h (2 Bft)
08.08.2015 03:58 20,1 C 18,3 C 97 % 15 lf 1018,4 hPa 0,0 l/m 0 min 2 min 0 W/m 6,3 km/h (2 Bft)
08.08.2015 04:00 20,1 C 18,3 C 97 % 15 lf 1018,3 hPa 0,0 l/m 0 min 2 min 0 W/m 8,4 km/h (2 Bft)
08.08.2015 04:02 20,1 C 18,3 C 97 % 15 lf 1018,4 hPa 0,0 l/m 0 min 2 min 0 W/m 8,4 km/h (2 Bft)
08.08.2015 04:04 20,1 C 18,3 C 97 % 15 lf 1018,2 hPa 0,2 l/m 0 min 2 min 0 W/m 6,3 km/h (2 Bft)
08.08.2015 04:06 20,1 C 18,3 C 97 % 15 lf 1018,3 hPa 0,0 l/m 0 min 2 min 0 W/m 10,5 km/h (2 Bft)
08.08.2015 04:08 20,1 C 18,3 C 97 % 15 lf 1018,3 hPa 0,0 l/m 0 min 2 min 0 W/m 12,6 km/h (3 Bft)
08.08.2015 04:10 20,0 C 18,3 C 97 % 15 lf 1018,5 hPa 0,0 l/m 0 min 2 min 0 W/m 6,3 km/h (2 Bft)
08.08.2015 04:12 20,0 C 18,3 C 97 % 15 lf 1018,5 hPa 0,0 l/m 0 min 0 min 0 W/m 6,3 km/h (2 Bft)
08.08.2015 04:14 20,0 C 18,3 C 97 % 15 lf 1018,5 hPa 0,0 l/m 0 min 2 min 0 W/m 8,4 km/h (2 Bft)
08.08.2015 04:16 20,0 C 18,3 C 97 % 15 lf 1018,5 hPa 0,0 l/m 0 min 2 min 0 W/m 6,3 km/h (2 Bft)
08.08.2015 04:18 19,9 C 18,3 C 97 % 15 lf 1018,4 hPa 0,0 l/m 0 min 2 min 0 W/m 8,4 km/h (2 Bft)
08.08.2015 04:20 19,9 C 18,3 C 97 % 15 lf 1018,4 hPa 0,0 l/m 0 min 0 min 0 W/m 8,4 km/h (2 Bft)
08.08.2015 04:22 19,9 C 18,3 C 97 % 15 lf 1018,3 hPa 0,0 l/m 0 min 0 min 0 W/m 8,4 km/h (2 Bft)
08.08.2015 04:24 19,9 C 18,3 C 97 % 15 lf 1018,2 hPa 0,0 l/m 0 min 0 min 0 W/m 10,5 km/h (2 Bft)
08.08.2015 04:26 19,9 C 18,3 C 97 % 15 lf 1018,2 hPa 0,0 l/m 0 min 0 min 0 W/m 10,5 km/h (2 Bft)
08.08.2015 04:28 19,8 C 18,3 C 97 % 15 lf 1018,2 hPa 0,0 l/m 0 min 0 min 0 W/m 10,5 km/h (2 Bft)
08.08.2015 04:30 19,8 C 18,3 C 97 % 15 lf 1018,2 hPa 0,0 l/m 0 min 0 min 0 W/m 10,5 km/h (2 Bft)
08.08.2015 04:32 19,8 C 18,3 C 97 % 15 lf 1018,2 hPa 0,0 l/m 0 min 0 min 0 W/m 12,6 km/h (3 Bft)
08.08.2015 04:34 19,8 C 18,3 C 97 % 15 lf 1018,1 hPa 0,0 l/m 0 min 0 min 0 W/m 8,4 km/h (2 Bft)
08.08.2015 04:36 19,7 C 18,3 C 97 % 15 lf 1018,1 hPa 0,0 l/m 0 min 0 min 0 W/m 12,6 km/h (3 Bft)
08.08.2015 04:38 19,7 C 18,3 C 97 % 15 lf 1018,0 hPa 0,0 l/m 0 min 0 min 0 W/m 10,5 km/h (2 Bft)
08.08.2015 04:40 19,7 C 18,3 C 97 % 15 lf 1018,0 hPa 0,0 l/m 0 min 0 min 0 W/m 10,5 km/h (2 Bft)
08.08.2015 04:42 19,7 C 18,3 C 97 % 15 lf 1018,0 hPa 0,0 l/m 0 min 0 min 0 W/m 10,5 km/h (2 Bft)
08.08.2015 04:44 19,7 C 18,3 C 97 % 15 lf 1018,0 hPa 0,0 l/m 0 min 0 min 0 W/m 10,5 km/h (2 Bft)
08.08.2015 04:46 19,7 C 18,3 C 97 % 15 lf 1018,1 hPa 0,0 l/m 0 min 0 min 0 W/m 10,5 km/h (2 Bft)
08.08.2015 04:48 19,7 C 18,3 C 97 % 15 lf 1018,1 hPa 0,0 l/m 0 min 0 min 0 W/m 8,4 km/h (2 Bft)
08.08.2015 04:50 19,7 C 18,3 C 97 % 15 lf 1018,0 hPa 0,0 l/m 0 min 0 min 0 W/m 8,4 km/h (2 Bft)
08.08.2015 04:52 19,7 C 18,3 C 97 % 15 lf 1018,0 hPa 0,0 l/m 0 min 0 min 0 W/m 8,4 km/h (2 Bft)
08.08.2015 04:54 19,7 C 18,3 C 97 % 15 lf 1018,0 hPa 0,0 l/m 0 min 0 min 0 W/m 14,6 km/h (3 Bft)
08.08.2015 04:56 19,7 C 18,3 C 97 % 15 lf 1017,9 hPa 0,2 l/m 0 min 2 min 0 W/m 4,2 km/h (1 Bft)
08.08.2015 04:58 19,6 C 18,3 C 97 % 15 lf 1017,7 hPa 0,0 l/m 0 min 2 min 0 W/m 12,6 km/h (3 Bft)
08.08.2015 05:00 19,6 C 18,3 C 97 % 15 lf 1017,6 hPa 0,2 l/m 0 min 2 min 0 W/m 12,6 km/h (3 Bft)
08.08.2015 05:02 19,6 C 18,3 C 97 % 15 lf 1017,7 hPa 0,2 l/m 0 min 2 min 0 W/m 12,6 km/h (3 Bft)
08.08.2015 05:04 19,6 C 18,3 C 97 % 15 lf 1017,7 hPa 0,2 l/m 0 min 2 min 0 W/m 10,5 km/h (2 Bft)
08.08.2015 05:06 19,6 C 18,3 C 97 % 15 lf 1017,6 hPa 0,0 l/m 0 min 2 min 0 W/m 10,5 km/h (2 Bft)
08.08.2015 05:08 19,6 C 17,8 C 97 % 15 lf 1017,7 hPa 0,0 l/m 0 min 2 min 0 W/m 8,4 km/h (2 Bft)
08.08.2015 05:10 19,6 C 17,8 C 97 % 15 lf 1017,6 hPa 0,0 l/m 0 min 2 min 0 W/m 12,6 km/h (3 Bft)
08.08.2015 05:12 19,6 C 17,8 C 97 % 15 lf 1017,6 hPa 0,0 l/m 0 min 2 min 0 W/m 12,6 km/h (3 Bft)
08.08.2015 05:14 19,6 C 17,8 C 97 % 15 lf 1017,6 hPa 0,0 l/m 0 min 0 min 0 W/m 10,5 km/h (2 Bft)
08.08.2015 05:16 19,6 C 17,8 C 97 % 15 lf 1017,7 hPa 0,0 l/m 0 min 0 min 0 W/m 10,5 km/h (2 Bft)
08.08.2015 05:18 19,5 C 17,8 C 97 % 15 lf 1017,8 hPa 0,0 l/m 0 min 0 min 0 W/m 12,6 km/h (3 Bft)
08.08.2015 05:20 19,5 C 17,8 C 97 % 15 lf 1017,8 hPa 0,0 l/m 0 min 0 min 0 W/m 12,6 km/h (3 Bft)
08.08.2015 05:22 19,5 C 17,8 C 97 % 15 lf 1017,7 hPa 0,0 l/m 0 min 0 min 0 W/m 10,5 km/h (2 Bft)
08.08.2015 05:24 19,5 C 17,8 C 97 % 15 lf 1017,6 hPa 0,0 l/m 0 min 0 min 0 W/m 12,6 km/h (3 Bft)
08.08.2015 05:26 19,4 C 17,8 C 97 % 15 lf 1017,6 hPa 0,0 l/m 0 min 0 min 0 W/m 14,6 km/h (3 Bft)
08.08.2015 05:28 19,4 C 17,8 C 97 % 15 lf 1017,6 hPa 0,0 l/m 0 min 0 min 0 W/m 16,7 km/h (3 Bft)
08.08.2015 05:30 19,4 C 17,8 C 97 % 15 lf 1017,5 hPa 0,0 l/m 0 min 0 min 0 W/m 10,5 km/h (2 Bft)
08.08.2015 05:32 19,3 C 17,8 C 97 % 15 lf 1017,4 hPa 0,0 l/m 0 min 0 min 0 W/m 14,6 km/h (3 Bft)
08.08.2015 05:34 19,3 C 17,2 C 97 % 15 lf 1017,3 hPa 0,0 l/m 0 min 0 min 0 W/m 18,8 km/h (3 Bft)
08.08.2015 05:36 19,2 C 17,2 C 97 % 15 lf 1017,4 hPa 0,0 l/m 0 min 0 min 0 W/m 16,7 km/h (3 Bft)
08.08.2015 05:38 19,2 C 17,2 C 97 % 15 lf 1017,3 hPa 0,0 l/m 0 min 0 min 0 W/m 14,6 km/h (3 Bft)
08.08.2015 05:40 19,1 C 17,2 C 97 % 15 lf 1017,3 hPa 0,0 l/m 0 min 0 min 0 W/m 16,7 km/h (3 Bft)
08.08.2015 05:42 19,1 C 17,2 C 97 % 15 lf 1017,4 hPa 0,0 l/m 0 min 0 min 0 W/m 18,8 km/h (3 Bft)
08.08.2015 05:44 18,9 C 17,2 C 97 % 15 lf 1017,4 hPa 0,0 l/m 0 min 0 min 0 W/m 16,7 km/h (3 Bft)
08.08.2015 05:46 18,9 C 16,7 C 97 % 15 lf 1017,5 hPa 0,0 l/m 0 min 0 min 0 W/m 14,6 km/h (3 Bft)
08.08.2015 05:48 18,8 C 16,7 C 97 % 15 lf 1017,6 hPa 0,0 l/m 0 min 0 min 0 W/m 14,6 km/h (3 Bft)
08.08.2015 05:50 18,7 C 16,7 C 97 % 15 lf 1017,8 hPa 0,0 l/m 0 min 0 min 0 W/m 10,5 km/h (2 Bft)
08.08.2015 05:52 18,7 C 16,7 C 97 % 15 lf 1017,9 hPa 0,0 l/m 0 min 0 min 0 W/m 10,5 km/h (2 Bft)
08.08.2015 05:54 18,6 C 16,7 C 97 % 15 lf 1017,9 hPa 0,0 l/m 0 min 0 min 0 W/m 14,6 km/h (3 Bft)
08.08.2015 05:56 18,6 C 16,7 C 97 % 15 lf 1017,9 hPa 0,0 l/m 0 min 0 min 0 W/m 12,6 km/h (3 Bft)
08.08.2015 05:58 18,5 C 16,7 C 97 % 15 lf 1017,9 hPa 0,0 l/m 0 min 0 min 0 W/m 12,6 km/h (3 Bft)
08.08.2015 06:00 18,5 C 16,7 C 97 % 15 lf 1017,9 hPa 0,0 l/m 0 min 0 min 0 W/m 10,5 km/h (2 Bft)
08.08.2015 06:02 18,4 C 16,7 C 97 % 15 lf 1017,9 hPa 0,0 l/m 0 min 0 min 0 W/m 10,5 km/h (2 Bft)
08.08.2015 06:05 18,4 C 16,7 C 97 % 15 lf 1017,9 hPa 0,0 l/m 0 min 0 min 0 W/m 14,6 km/h (3 Bft)
08.08.2015 06:08 18,3 C 16,7 C 97 % 15 lf 1017,9 hPa 0,0 l/m 0 min 0 min 0 W/m 14,6 km/h (3 Bft)
08.08.2015 06:10 18,3 C 16,7 C 97 % 15 lf 1018,0 hPa 0,0 l/m 0 min 0 min 0 W/m 4,2 km/h (1 Bft)
08.08.2015 06:12 18,3 C 16,7 C 97 % 15 lf 1018,0 hPa 0,0 l/m 0 min 0 min 0 W/m 6,3 km/h (2 Bft)
08.08.2015 06:14 18,3 C 16,7 C 97 % 15 lf 1017,9 hPa 0,0 l/m 0 min 0 min 4 W/m 6,3 km/h (2 Bft)
08.08.2015 06:16 18,3 C 16,7 C 97 % 15 lf 1017,9 hPa 0,0 l/m 0 min 0 min 5 W/m 6,3 km/h (2 Bft)
08.08.2015 06:18 18,2 C 16,7 C 97 % 15 lf 1017,9 hPa 0,0 l/m 0 min 0 min 5 W/m 10,5 km/h (2 Bft)
08.08.2015 06:20 18,2 C 16,7 C 97 % 15 lf 1017,9 hPa 0,0 l/m 0 min 0 min 6 W/m 8,4 km/h (2 Bft)
08.08.2015 06:22 18,2 C 16,7 C 97 % 15 lf 1017,9 hPa 0,0 l/m 0 min 0 min 7 W/m 12,6 km/h (3 Bft)
08.08.2015 06:24 18,2 C 16,7 C 97 % 15 lf 1017,8 hPa 0,0 l/m 0 min 0 min 8 W/m 8,4 km/h (2 Bft)
08.08.2015 06:26 18,2 C 16,7 C 97 % 15 lf 1017,7 hPa 0,0 l/m 0 min 0 min 9 W/m 10,5 km/h (2 Bft)
08.08.2015 06:28 18,1 C 16,7 C 97 % 15 lf 1017,7 hPa 0,0 l/m 0 min 0 min 11 W/m 10,5 km/h (2 Bft)
08.08.2015 06:30 18,1 C 16,7 C 97 % 15 lf 1017,8 hPa 0,0 l/m 0 min 0 min 12 W/m 10,5 km/h (2 Bft)
08.08.2015 06:32 18,1 C 16,7 C 97 % 15 lf 1017,9 hPa 0,0 l/m 0 min 0 min 14 W/m 6,3 km/h (2 Bft)
08.08.2015 06:34 18,1 C 16,7 C 97 % 15 lf 1018,0 hPa 0,0 l/m 0 min 0 min 17 W/m 2,1 km/h (1 Bft)
08.08.2015 06:36 18,1 C 16,7 C 97 % 15 lf 1018,1 hPa 0,0 l/m 0 min 0 min 21 W/m 6,3 km/h (2 Bft)
08.08.2015 06:38 18,1 C 16,7 C 97 % 15 lf 1018,1 hPa 0,0 l/m 0 min 0 min 25 W/m 4,2 km/h (1 Bft)
08.08.2015 06:40 18,1 C 16,7 C 97 % 15 lf 1018,1 hPa 0,0 l/m 0 min 0 min 28 W/m 6,3 km/h (2 Bft)
08.08.2015 06:42 18,1 C 16,7 C 97 % 15 lf 1018,1 hPa 0,0 l/m 0 min 0 min 31 W/m 6,3 km/h (2 Bft)
08.08.2015 06:44 18,1 C 16,7 C 97 % 15 lf 1018,2 hPa 0,0 l/m 0 min 0 min 34 W/m 6,3 km/h (2 Bft)
08.08.2015 06:46 18,0 C 16,7 C 97 % 15 lf 1018,2 hPa 0,0 l/m 0 min 0 min 37 W/m 6,3 km/h (2 Bft)
08.08.2015 06:48 18,0 C 16,7 C 97 % 15 lf 1018,2 hPa 0,0 l/m 0 min 0 min 40 W/m 8,4 km/h (2 Bft)
08.08.2015 06:50 18,0 C 16,7 C 97 % 15 lf 1018,3 hPa 0,0 l/m 0 min 0 min 40 W/m 8,4 km/h (2 Bft)
08.08.2015 06:52 18,0 C 16,7 C 97 % 15 lf 1018,3 hPa 0,0 l/m 0 min 0 min 42 W/m 8,4 km/h (2 Bft)
08.08.2015 06:54 18,0 C 16,7 C 97 % 15 lf 1018,4 hPa 0,0 l/m 0 min 0 min 46 W/m 6,3 km/h (2 Bft)
08.08.2015 06:56 18,0 C 16,7 C 97 % 15 lf 1018,5 hPa 0,0 l/m 0 min 0 min 47 W/m 8,4 km/h (2 Bft)
08.08.2015 06:58 18,0 C 16,7 C 97 % 15 lf 1018,5 hPa 0,0 l/m 0 min 0 min 51 W/m 6,3 km/h (2 Bft)
08.08.2015 07:00 18,0 C 16,7 C 97 % 15 lf 1018,3 hPa 0,0 l/m 0 min 0 min 51 W/m 6,3 km/h (2 Bft)
08.08.2015 07:02 18,0 C 16,7 C 97 % 15 lf 1018,2 hPa 0,0 l/m 0 min 0 min 53 W/m 12,6 km/h (3 Bft)
08.08.2015 07:04 18,0 C 16,7 C 97 % 15 lf 1018,2 hPa 0,0 l/m 0 min 0 min 56 W/m 8,4 km/h (2 Bft)
08.08.2015 07:06 18,0 C 16,7 C 97 % 15 lf 1018,2 hPa 0,0 l/m 0 min 0 min 59 W/m 8,4 km/h (2 Bft)
08.08.2015 07:08 18,0 C 16,7 C 97 % 15 lf 1018,4 hPa 0,0 l/m 0 min 0 min 62 W/m 6,3 km/h (2 Bft)
08.08.2015 07:10 18,0 C 16,7 C 97 % 15 lf 1018,5 hPa 0,0 l/m 0 min 0 min 62 W/m 6,3 km/h (2 Bft)
08.08.2015 07:12 18,0 C 16,7 C 97 % 15 lf 1018,5 hPa 0,0 l/m 0 min 0 min 62 W/m 6,3 km/h (2 Bft)
08.08.2015 07:14 18,0 C 16,7 C 97 % 15 lf 1018,6 hPa 0,0 l/m 0 min 0 min 64 W/m 8,4 km/h (2 Bft)
08.08.2015 07:16 18,0 C 16,7 C 97 % 15 lf 1018,7 hPa 0,0 l/m 0 min 0 min 70 W/m 8,4 km/h (2 Bft)
08.08.2015 07:18 18,0 C 16,7 C 97 % 15 lf 1018,8 hPa 0,0 l/m 0 min 0 min 73 W/m 6,3 km/h (2 Bft)
08.08.2015 07:20 18,0 C 16,7 C 97 % 15 lf 1018,8 hPa 0,0 l/m 0 min 0 min 67 W/m 4,2 km/h (1 Bft)
08.08.2015 07:22 18,0 C 16,7 C 97 % 15 lf 1018,9 hPa 0,0 l/m 0 min 0 min 58 W/m 8,4 km/h (2 Bft)
08.08.2015 07:24 18,0 C 16,7 C 97 % 15 lf 1018,9 hPa 0,0 l/m 0 min 0 min 45 W/m 6,3 km/h (2 Bft)
08.08.2015 07:26 18,0 C 16,7 C 97 % 15 lf 1018,9 hPa 0,0 l/m 0 min 0 min 45 W/m 4,2 km/h (1 Bft)
08.08.2015 07:28 18,0 C 16,7 C 97 % 15 lf 1018,9 hPa 0,0 l/m 0 min 0 min 54 W/m 10,5 km/h (2 Bft)
08.08.2015 07:30 18,0 C 16,7 C 97 % 15 lf 1018,9 hPa 0,0 l/m 0 min 0 min 67 W/m 10,5 km/h (2 Bft)
08.08.2015 07:32 17,9 C 16,7 C 97 % 15 lf 1019,0 hPa 0,0 l/m 0 min 0 min 74 W/m 10,5 km/h (2 Bft)
08.08.2015 07:34 17,9 C 16,7 C 97 % 15 lf 1018,9 hPa 0,0 l/m 0 min 0 min 74 W/m 6,3 km/h (2 Bft)
08.08.2015 07:36 17,9 C 16,7 C 97 % 15 lf 1018,9 hPa 0,0 l/m 0 min 0 min 70 W/m 8,4 km/h (2 Bft)
08.08.2015 07:38 17,9 C 16,7 C 97 % 15 lf 1018,9 hPa 0,0 l/m 0 min 0 min 83 W/m 6,3 km/h (2 Bft)
08.08.2015 07:40 17,9 C 16,7 C 97 % 15 lf 1019,0 hPa 0,0 l/m 0 min 0 min 97 W/m 4,2 km/h (1 Bft)
08.08.2015 07:42 17,9 C 16,7 C 97 % 15 lf 1019,1 hPa 0,0 l/m 0 min 0 min 93 W/m 6,3 km/h (2 Bft)
08.08.2015 07:44 17,9 C 16,7 C 98 % 15 lf 1019,2 hPa 0,0 l/m 0 min 0 min 90 W/m 8,4 km/h (2 Bft)
08.08.2015 07:46 17,9 C 16,7 C 98 % 15 lf 1019,3 hPa 0,0 l/m 0 min 0 min 92 W/m 8,4 km/h (2 Bft)
08.08.2015 07:48 17,9 C 16,7 C 98 % 15 lf 1019,3 hPa 0,0 l/m 0 min 0 min 106 W/m 10,5 km/h (2 Bft)
08.08.2015 07:50 17,9 C 16,7 C 98 % 15 lf 1019,4 hPa 0,0 l/m 2 min 0 min 127 W/m 10,5 km/h (2 Bft)
08.08.2015 07:52 17,9 C 16,7 C 98 % 15 lf 1019,4 hPa 0,0 l/m 0 min 0 min 111 W/m 12,6 km/h (3 Bft)
08.08.2015 07:54 17,9 C 16,7 C 98 % 15 lf 1019,5 hPa 0,0 l/m 0 min 0 min 83 W/m 12,6 km/h (3 Bft)
08.08.2015 07:56 17,9 C 16,7 C 98 % 15 lf 1019,5 hPa 0,0 l/m 0 min 0 min 77 W/m 12,6 km/h (3 Bft)
08.08.2015 07:58 17,9 C 16,1 C 98 % 15 lf 1019,5 hPa 0,0 l/m 0 min 0 min 84 W/m 14,6 km/h (3 Bft)
08.08.2015 08:00 17,8 C 16,1 C 98 % 15 lf 1019,5 hPa 0,0 l/m 0 min 0 min 92 W/m 14,6 km/h (3 Bft)
08.08.2015 08:02 17,8 C 16,1 C 98 % 15 lf 1019,5 hPa 0,0 l/m 0 min 0 min 104 W/m 8,4 km/h (2 Bft)
08.08.2015 08:04 17,8 C 16,1 C 98 % 15 lf 1019,5 hPa 0,0 l/m 0 min 0 min 127 W/m 8,4 km/h (2 Bft)
08.08.2015 08:06 17,8 C 16,1 C 98 % 15 lf 1019,5 hPa 0,0 l/m 2 min 0 min 140 W/m 10,5 km/h (2 Bft)
08.08.2015 08:08 17,8 C 16,1 C 98 % 15 lf 1019,5 hPa 0,0 l/m 2 min 0 min 148 W/m 10,5 km/h (2 Bft)
08.08.2015 08:10 17,7 C 16,1 C 98 % 15 lf 1019,5 hPa 0,0 l/m 2 min 0 min 146 W/m 8,4 km/h (2 Bft)
08.08.2015 08:12 17,8 C 16,7 C 98 % 15 lf 1019,5 hPa 0,0 l/m 2 min 0 min 153 W/m 10,5 km/h (2 Bft)
08.08.2015 08:14 17,8 C 16,1 C 98 % 15 lf 1019,5 hPa 0,0 l/m 2 min 0 min 158 W/m 12,6 km/h (3 Bft)
08.08.2015 08:16 17,7 C 16,1 C 98 % 15 lf 1019,5 hPa 0,0 l/m 2 min 0 min 183 W/m 14,6 km/h (3 Bft)
08.08.2015 08:18 17,7 C 16,1 C 98 % 15 lf 1019,5 hPa 0,0 l/m 2 min 0 min 200 W/m 14,6 km/h (3 Bft)
08.08.2015 08:20 17,7 C 16,7 C 98 % 15 lf 1019,6 hPa 0,0 l/m 2 min 0 min 201 W/m 10,5 km/h (2 Bft)
08.08.2015 08:22 17,8 C 16,7 C 98 % 15 lf 1019,5 hPa 0,0 l/m 2 min 0 min 208 W/m 8,4 km/h (2 Bft)
08.08.2015 08:24 17,7 C 16,7 C 98 % 15 lf 1019,6 hPa 0,0 l/m 2 min 0 min 219 W/m 16,7 km/h (3 Bft)
08.08.2015 08:26 17,8 C 16,1 C 98 % 15 lf 1019,6 hPa 0,0 l/m 2 min 0 min 197 W/m 12,6 km/h (3 Bft)
08.08.2015 08:28 17,8 C 16,1 C 98 % 15 lf 1019,7 hPa 0,0 l/m 2 min 0 min 198 W/m 10,5 km/h (2 Bft)
08.08.2015 08:30 17,8 C 16,7 C 98 % 15 lf 1019,7 hPa 0,0 l/m 2 min 0 min 207 W/m 10,5 km/h (2 Bft)
08.08.2015 08:32 17,8 C 16,7 C 98 % 15 lf 1019,8 hPa 0,0 l/m 0 min 0 min 169 W/m 18,8 km/h (3 Bft)
08.08.2015 08:34 17,8 C 16,7 C 98 % 15 lf 1020,0 hPa 0,0 l/m 0 min 0 min 167 W/m 18,8 km/h (3 Bft)
08.08.2015 08:36 17,8 C 16,7 C 98 % 15 lf 1020,1 hPa 0,0 l/m 0 min 0 min 155 W/m 14,6 km/h (3 Bft)
08.08.2015 08:38 17,8 C 16,7 C 98 % 15 lf 1020,1 hPa 0,0 l/m 2 min 0 min 180 W/m 16,7 km/h (3 Bft)
08.08.2015 08:40 17,8 C 16,7 C 98 % 15 lf 1020,1 hPa 0,0 l/m 2 min 0 min 200 W/m 14,6 km/h (3 Bft)
08.08.2015 08:42 17,8 C 16,7 C 98 % 15 lf 1020,1 hPa 0,0 l/m 2 min 0 min 228 W/m 16,7 km/h (3 Bft)
08.08.2015 08:44 17,8 C 16,7 C 98 % 14 lf 1020,1 hPa 0,0 l/m 2 min 0 min 234 W/m 12,6 km/h (3 Bft)
08.08.2015 08:46 17,8 C 16,7 C 98 % 15 lf 1020,1 hPa 0,0 l/m 2 min 0 min 222 W/m 12,6 km/h (3 Bft)
08.08.2015 08:48 17,9 C 16,7 C 98 % 15 lf 1020,0 hPa 0,0 l/m 2 min 0 min 239 W/m 12,6 km/h (3 Bft)
08.08.2015 08:50 17,9 C 16,7 C 98 % 14 lf 1020,0 hPa 0,0 l/m 2 min 0 min 307 W/m 14,6 km/h (3 Bft)
08.08.2015 08:52 17,9 C 16,7 C 98 % 15 lf 1020,1 hPa 0,0 l/m 2 min 0 min 309 W/m 14,6 km/h (3 Bft)
08.08.2015 08:54 17,9 C 16,7 C 98 % 14 lf 1020,1 hPa 0,0 l/m 2 min 0 min 308 W/m 14,6 km/h (3 Bft)
08.08.2015 08:56 18,0 C 16,7 C 98 % 14 lf 1020,1 hPa 0,0 l/m 2 min 0 min 328 W/m 12,6 km/h (3 Bft)
08.08.2015 08:58 18,0 C 16,7 C 98 % 13 lf 1020,0 hPa 0,0 l/m 2 min 0 min 331 W/m 12,6 km/h (3 Bft)
08.08.2015 09:00 18,1 C 16,7 C 98 % 13 lf 1020,1 hPa 0,0 l/m 2 min 0 min 334 W/m 12,6 km/h (3 Bft)
08.08.2015 09:02 18,1 C 16,7 C 98 % 12 lf 1020,1 hPa 0,0 l/m 2 min 0 min 324 W/m 12,6 km/h (3 Bft)
08.08.2015 09:04 18,1 C 16,7 C 98 % 10 lf 1020,1 hPa 0,0 l/m 2 min 0 min 344 W/m 8,4 km/h (2 Bft)
08.08.2015 09:06 18,1 C 16,7 C 98 % 10 lf 1020,1 hPa 0,0 l/m 2 min 0 min 332 W/m 12,6 km/h (3 Bft)
08.08.2015 09:08 18,2 C 16,7 C 98 % 9 lf 1020,1 hPa 0,0 l/m 2 min 0 min 360 W/m 12,6 km/h (3 Bft)
08.08.2015 09:10 18,2 C 16,7 C 98 % 9 lf 1020,1 hPa 0,0 l/m 2 min 0 min 338 W/m 10,5 km/h (2 Bft)
08.08.2015 09:12 18,2 C 17,2 C 98 % 6 lf 1020,2 hPa 0,0 l/m 2 min 0 min 369 W/m 14,6 km/h (3 Bft)
08.08.2015 09:14 18,3 C 16,7 C 97 % 3 lf 1020,2 hPa 0,0 l/m 2 min 0 min 347 W/m 12,6 km/h (3 Bft)
08.08.2015 09:16 18,3 C 16,7 C 97 % 3 lf 1020,3 hPa 0,0 l/m 2 min 0 min 358 W/m 16,7 km/h (3 Bft)
08.08.2015 09:18 18,3 C 16,7 C 97 % 2 lf 1020,2 hPa 0,0 l/m 2 min 0 min 411 W/m 16,7 km/h (3 Bft)
08.08.2015 09:20 18,3 C 16,7 C 97 % 1 lf 1020,4 hPa 0,0 l/m 2 min 0 min 429 W/m 14,6 km/h (3 Bft)
08.08.2015 09:22 18,3 C 16,7 C 97 % 1 lf 1020,4 hPa 0,0 l/m 2 min 0 min 306 W/m 10,5 km/h (2 Bft)
08.08.2015 09:24 18,4 C 16,7 C 97 % 0 lf 1020,4 hPa 0,0 l/m 2 min 0 min 262 W/m 14,6 km/h (3 Bft)
08.08.2015 09:26 18,4 C 16,7 C 97 % 0 lf 1020,3 hPa 0,0 l/m 2 min 0 min 255 W/m 20,9 km/h (4 Bft)
08.08.2015 09:28 18,4 C 16,7 C 97 % 0 lf 1020,4 hPa 0,0 l/m 2 min 0 min 267 W/m 14,6 km/h (3 Bft)
08.08.2015 09:30 18,4 C 16,7 C 97 % 0 lf 1020,3 hPa 0,0 l/m 2 min 0 min 292 W/m 14,6 km/h (3 Bft)
08.08.2015 09:32 18,5 C 17,2 C 97 % 0 lf 1020,4 hPa 0,0 l/m 0 min 0 min 228 W/m 20,9 km/h (4 Bft)
08.08.2015 09:34 18,5 C 16,7 C 97 % 0 lf 1020,4 hPa 0,0 l/m 0 min 0 min 217 W/m 12,6 km/h (3 Bft)
08.08.2015 09:36 18,6 C 16,7 C 97 % 0 lf 1020,4 hPa 0,0 l/m 0 min 0 min 192 W/m 14,6 km/h (3 Bft)
08.08.2015 09:38 18,6 C 17,2 C 96 % 0 lf 1020,5 hPa 0,0 l/m 0 min 0 min 212 W/m 12,6 km/h (3 Bft)
08.08.2015 09:40 18,6 C 16,7 C 96 % 0 lf 1020,5 hPa 0,0 l/m 2 min 0 min 288 W/m 16,7 km/h (3 Bft)
08.08.2015 09:42 18,6 C 17,2 C 96 % 0 lf 1020,5 hPa 0,0 l/m 0 min 0 min 243 W/m 12,6 km/h (3 Bft)
08.08.2015 09:44 18,7 C 16,7 C 96 % 0 lf 1020,5 hPa 0,0 l/m 0 min 0 min 188 W/m 12,6 km/h (3 Bft)
08.08.2015 09:46 18,7 C 16,7 C 96 % 0 lf 1020,5 hPa 0,0 l/m 0 min 0 min 117 W/m 16,7 km/h (3 Bft)
08.08.2015 09:48 18,7 C 17,2 C 95 % 0 lf 1020,5 hPa 0,0 l/m 0 min 0 min 201 W/m 16,7 km/h (3 Bft)
08.08.2015 09:50 18,7 C 17,2 C 95 % 0 lf 1020,5 hPa 0,0 l/m 0 min 0 min 252 W/m 12,6 km/h (3 Bft)
08.08.2015 09:52 18,8 C 17,2 C 95 % 0 lf 1020,5 hPa 0,0 l/m 0 min 0 min 250 W/m 16,7 km/h (3 Bft)
08.08.2015 09:54 18,8 C 17,2 C 95 % 0 lf 1020,5 hPa 0,0 l/m 0 min 0 min 253 W/m 14,6 km/h (3 Bft)
08.08.2015 09:56 18,9 C 17,2 C 95 % 0 lf 1020,5 hPa 0,0 l/m 0 min 0 min 250 W/m 12,6 km/h (3 Bft)
08.08.2015 09:58 18,9 C 17,2 C 94 % 0 lf 1020,4 hPa 0,0 l/m 0 min 0 min 239 W/m 14,6 km/h (3 Bft)
08.08.2015 10:00 18,9 C 17,2 C 94 % 0 lf 1020,5 hPa 0,0 l/m 0 min 0 min 235 W/m 14,6 km/h (3 Bft)
08.08.2015 10:02 18,9 C 17,2 C 94 % 0 lf 1020,5 hPa 0,0 l/m 0 min 0 min 242 W/m 10,5 km/h (2 Bft)
08.08.2015 10:04 19,0 C 17,2 C 94 % 0 lf 1020,6 hPa 0,0 l/m 0 min 0 min 243 W/m 12,6 km/h (3 Bft)
08.08.2015 10:06 19,0 C 17,8 C 94 % 0 lf 1020,6 hPa 0,0 l/m 0 min 0 min 252 W/m 14,6 km/h (3 Bft)
08.08.2015 10:08 19,1 C 17,2 C 94 % 0 lf 1020,7 hPa 0,0 l/m 0 min 0 min 236 W/m 14,6 km/h (3 Bft)
08.08.2015 10:10 19,1 C 17,2 C 93 % 0 lf 1020,7 hPa 0,0 l/m 0 min 0 min 202 W/m 12,6 km/h (3 Bft)
08.08.2015 10:12 19,1 C 17,2 C 93 % 0 lf 1020,7 hPa 0,0 l/m 0 min 0 min 208 W/m 14,6 km/h (3 Bft)
08.08.2015 10:14 19,2 C 17,8 C 93 % 0 lf 1020,7 hPa 0,0 l/m 0 min 0 min 238 W/m 16,7 km/h (3 Bft)
08.08.2015 10:16 19,2 C 17,8 C 93 % 0 lf 1020,7 hPa 0,0 l/m 2 min 0 min 319 W/m 12,6 km/h (3 Bft)
08.08.2015 10:18 19,3 C 17,8 C 93 % 0 lf 1020,8 hPa 0,0 l/m 2 min 0 min 320 W/m 16,7 km/h (3 Bft)
08.08.2015 10:20 19,3 C 17,8 C 92 % 0 lf 1020,7 hPa 0,0 l/m 0 min 0 min 279 W/m 14,6 km/h (3 Bft)
08.08.2015 10:22 19,3 C 17,8 C 92 % 0 lf 1020,7 hPa 0,0 l/m 0 min 0 min 259 W/m 16,7 km/h (3 Bft)
08.08.2015 10:24 19,4 C 17,8 C 92 % 0 lf 1020,8 hPa 0,0 l/m 0 min 0 min 264 W/m 16,7 km/h (3 Bft)
08.08.2015 10:26 19,4 C 17,8 C 92 % 0 lf 1020,8 hPa 0,0 l/m 0 min 0 min 267 W/m 10,5 km/h (2 Bft)
08.08.2015 10:28 19,5 C 18,3 C 92 % 0 lf 1020,8 hPa 0,0 l/m 0 min 0 min 272 W/m 12,6 km/h (3 Bft)
08.08.2015 10:30 19,6 C 17,8 C 92 % 0 lf 1020,9 hPa 0,0 l/m 0 min 0 min 250 W/m 16,7 km/h (3 Bft)
08.08.2015 10:32 19,6 C 17,8 C 91 % 0 lf 1020,9 hPa 0,0 l/m 0 min 0 min 229 W/m 16,7 km/h (3 Bft)
08.08.2015 10:34 19,6 C 17,8 C 91 % 0 lf 1020,9 hPa 0,0 l/m 0 min 0 min 229 W/m 18,8 km/h (3 Bft)
08.08.2015 10:36 19,6 C 17,8 C 91 % 0 lf 1020,9 hPa 0,0 l/m 0 min 0 min 226 W/m 10,5 km/h (2 Bft)
08.08.2015 10:38 19,6 C 17,8 C 91 % 0 lf 1020,9 hPa 0,0 l/m 0 min 0 min 230 W/m 12,6 km/h (3 Bft)
08.08.2015 10:40 19,7 C 17,8 C 91 % 0 lf 1021,0 hPa 0,0 l/m 0 min 0 min 246 W/m 20,9 km/h (4 Bft)
08.08.2015 10:42 19,7 C 17,8 C 90 % 0 lf 1021,0 hPa 0,0 l/m 0 min 0 min 266 W/m 14,6 km/h (3 Bft)
08.08.2015 10:44 19,7 C 18,3 C 90 % 0 lf 1021,2 hPa 0,0 l/m 0 min 0 min 275 W/m 14,6 km/h (3 Bft)
08.08.2015 10:46 19,8 C 18,9 C 90 % 0 lf 1021,2 hPa 0,0 l/m 0 min 0 min 269 W/m 12,6 km/h (3 Bft)
08.08.2015 10:48 19,8 C 19,4 C 90 % 0 lf 1021,3 hPa 0,0 l/m 0 min 0 min 261 W/m 14,6 km/h (3 Bft)
08.08.2015 10:50 19,8 C 19,4 C 90 % 0 lf 1021,3 hPa 0,0 l/m 0 min 0 min 215 W/m 14,6 km/h (3 Bft)
08.08.2015 10:52 19,9 C 19,4 C 90 % 0 lf 1021,3 hPa 0,0 l/m 0 min 0 min 279 W/m 10,5 km/h (2 Bft)
08.08.2015 10:54 19,9 C 19,4 C 89 % 0 lf 1021,4 hPa 0,0 l/m 0 min 0 min 282 W/m 14,6 km/h (3 Bft)
08.08.2015 10:56 19,9 C 19,4 C 89 % 0 lf 1021,4 hPa 0,0 l/m 0 min 0 min 301 W/m 16,7 km/h (3 Bft)
08.08.2015 10:58 20,0 C 20,0 C 89 % 0 lf 1021,5 hPa 0,0 l/m 2 min 0 min 363 W/m 18,8 km/h (3 Bft)
08.08.2015 11:00 20,0 C 20,6 C 89 % 0 lf 1021,6 hPa 0,0 l/m 2 min 0 min 353 W/m 14,6 km/h (3 Bft)
08.08.2015 11:02 20,1 C 20,6 C 89 % 0 lf 1021,5 hPa 0,0 l/m 2 min 0 min 336 W/m 10,5 km/h (2 Bft)
08.08.2015 11:04 20,1 C 20,6 C 89 % 0 lf 1021,5 hPa 0,0 l/m 0 min 0 min 330 W/m 14,6 km/h (3 Bft)
08.08.2015 11:06 20,2 C 20,6 C 89 % 0 lf 1021,5 hPa 0,0 l/m 2 min 0 min 354 W/m 14,6 km/h (3 Bft)
08.08.2015 11:08 20,2 C 20,6 C 89 % 0 lf 1021,4 hPa 0,0 l/m 2 min 0 min 397 W/m 14,6 km/h (3 Bft)
08.08.2015 11:10 20,3 C 20,0 C 88 % 0 lf 1021,4 hPa 0,0 l/m 2 min 0 min 348 W/m 14,6 km/h (3 Bft)
08.08.2015 11:12 20,3 C 20,0 C 88 % 0 lf 1021,4 hPa 0,0 l/m 0 min 0 min 258 W/m 14,6 km/h (3 Bft)
08.08.2015 11:14 20,3 C 20,0 C 88 % 0 lf 1021,4 hPa 0,0 l/m 0 min 0 min 293 W/m 18,8 km/h (3 Bft)
08.08.2015 11:16 20,4 C 20,6 C 88 % 0 lf 1021,5 hPa 0,0 l/m 2 min 0 min 376 W/m 10,5 km/h (2 Bft)
08.08.2015 11:18 20,4 C 20,6 C 88 % 0 lf 1021,7 hPa 0,0 l/m 2 min 0 min 623 W/m 16,7 km/h (3 Bft)
08.08.2015 11:20 20,5 C 21,1 C 88 % 0 lf 1021,7 hPa 0,0 l/m 2 min 0 min 620 W/m 12,6 km/h (3 Bft)
08.08.2015 11:22 20,6 C 21,1 C 88 % 0 lf 1021,6 hPa 0,0 l/m 2 min 0 min 487 W/m 10,5 km/h (2 Bft)
08.08.2015 11:24 20,7 C 21,1 C 88 % 0 lf 1021,6 hPa 0,0 l/m 2 min 0 min 469 W/m 14,6 km/h (3 Bft)
08.08.2015 11:26 20,7 C 21,1 C 87 % 0 lf 1021,8 hPa 0,0 l/m 2 min 0 min 428 W/m 10,5 km/h (2 Bft)
08.08.2015 11:28 20,8 C 20,6 C 87 % 0 lf 1021,9 hPa 0,0 l/m 0 min 0 min 296 W/m 16,7 km/h (3 Bft)
08.08.2015 11:30 20,8 C 20,6 C 87 % 0 lf 1021,9 hPa 0,0 l/m 0 min 0 min 289 W/m 16,7 km/h (3 Bft)
08.08.2015 11:32 20,9 C 21,1 C 87 % 0 lf 1022,0 hPa 0,0 l/m 0 min 0 min 315 W/m 18,8 km/h (3 Bft)
08.08.2015 11:34 20,9 C 21,1 C 87 % 0 lf 1022,0 hPa 0,0 l/m 0 min 0 min 351 W/m 18,8 km/h (3 Bft)
08.08.2015 11:36 20,9 C 21,1 C 86 % 0 lf 1022,0 hPa 0,0 l/m 2 min 0 min 363 W/m 10,5 km/h (2 Bft)
08.08.2015 11:38 21,0 C 21,1 C 86 % 0 lf 1022,0 hPa 0,0 l/m 0 min 0 min 315 W/m 16,7 km/h (3 Bft)
08.08.2015 11:40 21,0 C 21,1 C 86 % 0 lf 1022,0 hPa 0,0 l/m 0 min 0 min 327 W/m 12,6 km/h (3 Bft)
08.08.2015 11:42 21,1 C 21,1 C 86 % 0 lf 1022,0 hPa 0,0 l/m 0 min 0 min 338 W/m 16,7 km/h (3 Bft)
08.08.2015 11:44 21,1 C 20,6 C 85 % 0 lf 1021,9 hPa 0,0 l/m 0 min 0 min 325 W/m 14,6 km/h (3 Bft)
08.08.2015 11:46 21,1 C 20,6 C 85 % 0 lf 1021,9 hPa 0,0 l/m 0 min 0 min 346 W/m 14,6 km/h (3 Bft)
08.08.2015 11:48 21,1 C 21,1 C 85 % 0 lf 1021,9 hPa 0,0 l/m 2 min 0 min 392 W/m 12,6 km/h (3 Bft)
08.08.2015 11:50 21,2 C 21,7 C 86 % 0 lf 1022,0 hPa 0,0 l/m 0 min 0 min 363 W/m 12,6 km/h (3 Bft)
08.08.2015 11:52 21,3 C 21,1 C 86 % 0 lf 1022,0 hPa 0,0 l/m 0 min 0 min 334 W/m 18,8 km/h (3 Bft)
08.08.2015 11:54 21,3 C 21,1 C 85 % 0 lf 1022,0 hPa 0,0 l/m 0 min 0 min 365 W/m 18,8 km/h (3 Bft)
08.08.2015 11:56 21,3 C 21,7 C 85 % 0 lf 1021,9 hPa 0,0 l/m 2 min 0 min 381 W/m 16,7 km/h (3 Bft)
08.08.2015 11:58 21,4 C 21,7 C 85 % 0 lf 1022,0 hPa 0,0 l/m 0 min 0 min 365 W/m 12,6 km/h (3 Bft)
08.08.2015 12:00 21,4 C 21,7 C 85 % 0 lf 1022,0 hPa 0,0 l/m 0 min 0 min 362 W/m 18,8 km/h (3 Bft)
08.08.2015 12:02 21,4 C 21,1 C 85 % 0 lf 1022,0 hPa 0,0 l/m 0 min 0 min 353 W/m 16,7 km/h (3 Bft)
08.08.2015 12:05 21,4 C 21,1 C 84 % 0 lf 1022,0 hPa 0,0 l/m 2 min 0 min 432 W/m 16,7 km/h (3 Bft)
08.08.2015 12:08 21,4 C 21,1 C 83 % 0 lf 1022,0 hPa 0,0 l/m 2 min 0 min 431 W/m 16,7 km/h (3 Bft)
08.08.2015 12:10 21,4 C 21,1 C 83 % 0 lf 1022,0 hPa 0,0 l/m 2 min 0 min 413 W/m 25,1 km/h (4 Bft)
08.08.2015 12:12 21,5 C 21,1 C 83 % 0 lf 1022,1 hPa 0,0 l/m 2 min 0 min 397 W/m 20,9 km/h (4 Bft)
08.08.2015 12:14 21,5 C 21,7 C 84 % 0 lf 1022,0 hPa 0,0 l/m 2 min 0 min 386 W/m 18,8 km/h (3 Bft)
08.08.2015 12:16 21,6 C 21,7 C 84 % 0 lf 1022,0 hPa 0,0 l/m 2 min 0 min 396 W/m 16,7 km/h (3 Bft)
08.08.2015 12:18 21,6 C 21,7 C 84 % 0 lf 1022,0 hPa 0,0 l/m 2 min 0 min 443 W/m 14,6 km/h (3 Bft)
08.08.2015 12:20 21,6 C 22,2 C 84 % 0 lf 1021,9 hPa 0,0 l/m 2 min 0 min 482 W/m 18,8 km/h (3 Bft)
08.08.2015 12:22 21,7 C 22,2 C 85 % 0 lf 1022,0 hPa 0,0 l/m 2 min 0 min 456 W/m 14,6 km/h (3 Bft)
08.08.2015 12:24 21,8 C 22,2 C 84 % 0 lf 1022,0 hPa 0,0 l/m 2 min 0 min 397 W/m 16,7 km/h (3 Bft)
08.08.2015 12:26 21,8 C 21,7 C 84 % 0 lf 1022,1 hPa 0,0 l/m 0 min 0 min 370 W/m 16,7 km/h (3 Bft)
08.08.2015 12:28 21,8 C 21,1 C 83 % 0 lf 1022,0 hPa 0,0 l/m 0 min 0 min 348 W/m 23,0 km/h (4 Bft)
08.08.2015 12:30 21,7 C 21,1 C 82 % 0 lf 1022,0 hPa 0,0 l/m 0 min 0 min 369 W/m 16,7 km/h (3 Bft)
08.08.2015 12:32 21,7 C 21,1 C 82 % 0 lf 1022,0 hPa 0,0 l/m 0 min 0 min 313 W/m 18,8 km/h (3 Bft)
08.08.2015 12:34 21,7 C 21,1 C 82 % 0 lf 1022,0 hPa 0,0 l/m 0 min 0 min 305 W/m 12,6 km/h (3 Bft)
08.08.2015 12:36 21,7 C 21,7 C 83 % 0 lf 1022,0 hPa 0,0 l/m 2 min 0 min 411 W/m 14,6 km/h (3 Bft)
08.08.2015 12:38 21,7 C 21,7 C 83 % 0 lf 1022,0 hPa 0,0 l/m 2 min 0 min 501 W/m 14,6 km/h (3 Bft)
08.08.2015 12:40 21,8 C 22,2 C 83 % 0 lf 1022,0 hPa 0,0 l/m 2 min 0 min 577 W/m 20,9 km/h (4 Bft)
08.08.2015 12:42 21,8 C 21,7 C 83 % 0 lf 1022,1 hPa 0,0 l/m 2 min 0 min 472 W/m 20,9 km/h (4 Bft)
08.08.2015 12:44 21,8 C 21,7 C 83 % 0 lf 1022,1 hPa 0,0 l/m 2 min 0 min 408 W/m 18,8 km/h (3 Bft)
08.08.2015 12:46 21,8 C 21,1 C 82 % 0 lf 1022,1 hPa 0,0 l/m 0 min 0 min 332 W/m 14,6 km/h (3 Bft)
08.08.2015 12:48 21,8 C 21,1 C 82 % 0 lf 1022,1 hPa 0,0 l/m 0 min 0 min 311 W/m 18,8 km/h (3 Bft)
08.08.2015 12:50 21,8 C 21,1 C 82 % 0 lf 1022,0 hPa 0,0 l/m 0 min 0 min 283 W/m 18,8 km/h (3 Bft)
08.08.2015 12:52 21,8 C 21,1 C 83 % 0 lf 1022,0 hPa 0,0 l/m 0 min 0 min 241 W/m 16,7 km/h (3 Bft)
08.08.2015 12:54 21,8 C 21,1 C 82 % 0 lf 1022,0 hPa 0,0 l/m 0 min 0 min 248 W/m 16,7 km/h (3 Bft)
08.08.2015 12:56 21,8 C 21,7 C 83 % 0 lf 1022,0 hPa 0,0 l/m 2 min 0 min 397 W/m 16,7 km/h (3 Bft)
08.08.2015 12:58 21,8 C 21,7 C 83 % 0 lf 1022,1 hPa 0,0 l/m 2 min 0 min 413 W/m 20,9 km/h (4 Bft)
08.08.2015 13:00 21,9 C 21,1 C 82 % 0 lf 1022,1 hPa 0,0 l/m 0 min 0 min 343 W/m 27,2 km/h (4 Bft)
08.08.2015 13:02 21,8 C 21,7 C 82 % 0 lf 1022,0 hPa 0,0 l/m 2 min 0 min 411 W/m 20,9 km/h (4 Bft)
08.08.2015 13:04 21,8 C 21,7 C 82 % 0 lf 1022,0 hPa 0,0 l/m 2 min 0 min 465 W/m 23,0 km/h (4 Bft)
08.08.2015 13:06 21,8 C 21,7 C 82 % 0 lf 1022,0 hPa 0,0 l/m 0 min 0 min 387 W/m 23,0 km/h (4 Bft)
08.08.2015 13:08 21,8 C 21,7 C 82 % 0 lf 1022,0 hPa 0,0 l/m 0 min 0 min 334 W/m 20,9 km/h (4 Bft)
08.08.2015 13:10 21,8 C 21,7 C 82 % 0 lf 1022,0 hPa 0,0 l/m 0 min 0 min 344 W/m 20,9 km/h (4 Bft)
08.08.2015 13:12 21,8 C 21,1 C 82 % 0 lf 1022,0 hPa 0,0 l/m 2 min 0 min 423 W/m 16,7 km/h (3 Bft)
08.08.2015 13:14 21,8 C 21,7 C 82 % 0 lf 1022,0 hPa 0,0 l/m 2 min 0 min 467 W/m 18,8 km/h (3 Bft)
08.08.2015 13:16 21,8 C 21,7 C 83 % 0 lf 1022,1 hPa 0,0 l/m 2 min 0 min 450 W/m 16,7 km/h (3 Bft)
08.08.2015 13:18 21,9 C 21,7 C 82 % 0 lf 1022,1 hPa 0,0 l/m 2 min 0 min 433 W/m 16,7 km/h (3 Bft)
08.08.2015 13:20 21,9 C 22,2 C 82 % 0 lf 1022,0 hPa 0,0 l/m 2 min 0 min 468 W/m 18,8 km/h (3 Bft)
08.08.2015 13:22 21,9 C 22,2 C 82 % 0 lf 1022,0 hPa 0,0 l/m 2 min 0 min 432 W/m 12,6 km/h (3 Bft)
08.08.2015 13:24 22,0 C 22,2 C 83 % 0 lf 1022,1 hPa 0,0 l/m 0 min 0 min 392 W/m 14,6 km/h (3 Bft)
08.08.2015 13:26 22,1 C 21,7 C 82 % 0 lf 1022,1 hPa 0,0 l/m 0 min 0 min 281 W/m 20,9 km/h (4 Bft)
08.08.2015 13:28 22,1 C 21,7 C 82 % 0 lf 1022,1 hPa 0,0 l/m 0 min 0 min 211 W/m 20,9 km/h (4 Bft)
08.08.2015 13:30 22,1 C 21,1 C 81 % 0 lf 1022,2 hPa 0,0 l/m 0 min 0 min 195 W/m 23,0 km/h (4 Bft)
08.08.2015 13:32 22,0 C 20,6 C 81 % 0 lf 1022,1 hPa 0,0 l/m 0 min 0 min 200 W/m 16,7 km/h (3 Bft)
08.08.2015 13:34 21,9 C 20,6 C 81 % 0 lf 1022,2 hPa 0,0 l/m 0 min 0 min 209 W/m 23,0 km/h (4 Bft)
08.08.2015 13:36 21,9 C 20,6 C 81 % 0 lf 1022,1 hPa 0,0 l/m 0 min 0 min 241 W/m 23,0 km/h (4 Bft)
08.08.2015 13:38 21,9 C 21,1 C 81 % 0 lf 1022,1 hPa 0,0 l/m 0 min 0 min 316 W/m 12,6 km/h (3 Bft)
08.08.2015 13:40 21,9 C 21,1 C 82 % 0 lf 1022,1 hPa 0,0 l/m 0 min 0 min 361 W/m 16,7 km/h (3 Bft)
08.08.2015 13:42 21,9 C 21,7 C 82 % 0 lf 1022,1 hPa 0,0 l/m 2 min 0 min 401 W/m 14,6 km/h (3 Bft)
08.08.2015 13:44 21,8 C 21,7 C 82 % 0 lf 1022,1 hPa 0,0 l/m 2 min 0 min 424 W/m 20,9 km/h (4 Bft)
08.08.2015 13:46 21,8 C 21,7 C 82 % 0 lf 1022,2 hPa 0,0 l/m 0 min 0 min 390 W/m 16,7 km/h (3 Bft)
08.08.2015 13:48 21,9 C 21,7 C 82 % 0 lf 1022,2 hPa 0,0 l/m 0 min 0 min 280 W/m 20,9 km/h (4 Bft)
08.08.2015 13:50 21,8 C 21,1 C 82 % 0 lf 1022,2 hPa 0,0 l/m 0 min 0 min 245 W/m 18,8 km/h (3 Bft)
08.08.2015 13:52 21,8 C 21,1 C 82 % 0 lf 1022,2 hPa 0,0 l/m 0 min 0 min 260 W/m 23,0 km/h (4 Bft)
08.08.2015 13:54 21,8 C 21,1 C 82 % 0 lf 1022,2 hPa 0,0 l/m 0 min 0 min 270 W/m 16,7 km/h (3 Bft)
08.08.2015 13:56 21,8 C 21,1 C 82 % 0 lf 1022,2 hPa 0,0 l/m 0 min 0 min 291 W/m 18,8 km/h (3 Bft)
08.08.2015 13:58 21,8 C 21,1 C 82 % 0 lf 1022,2 hPa 0,0 l/m 0 min 0 min 274 W/m 18,8 km/h (3 Bft)
08.08.2015 14:00 21,8 C 21,1 C 82 % 0 lf 1022,1 hPa 0,0 l/m 0 min 0 min 318 W/m 16,7 km/h (3 Bft)
08.08.2015 14:02 21,7 C 21,1 C 82 % 0 lf 1022,2 hPa 0,0 l/m 0 min 0 min 323 W/m 20,9 km/h (4 Bft)
08.08.2015 14:04 21,7 C 21,1 C 82 % 0 lf 1022,2 hPa 0,0 l/m 0 min 0 min 345 W/m 18,8 km/h (3 Bft)
08.08.2015 14:06 21,7 C 21,1 C 82 % 0 lf 1022,3 hPa 0,0 l/m 0 min 0 min 320 W/m 18,8 km/h (3 Bft)
08.08.2015 14:08 21,7 C 21,1 C 82 % 0 lf 1022,4 hPa 0,0 l/m 0 min 0 min 304 W/m 12,6 km/h (3 Bft)
08.08.2015 14:10 21,7 C 21,1 C 82 % 0 lf 1022,3 hPa 0,0 l/m 0 min 0 min 358 W/m 16,7 km/h (3 Bft)
08.08.2015 14:12 21,7 C 21,1 C 82 % 0 lf 1022,3 hPa 0,0 l/m 0 min 0 min 341 W/m 14,6 km/h (3 Bft)
08.08.2015 14:14 21,7 C 21,7 C 82 % 0 lf 1022,2 hPa 0,0 l/m 0 min 0 min 335 W/m 12,6 km/h (3 Bft)
08.08.2015 14:16 21,7 C 21,7 C 82 % 0 lf 1022,2 hPa 0,0 l/m 0 min 0 min 391 W/m 14,6 km/h (3 Bft)
08.08.2015 14:18 21,7 C 21,7 C 82 % 0 lf 1022,2 hPa 0,0 l/m 0 min 0 min 370 W/m 14,6 km/h (3 Bft)
08.08.2015 14:20 21,7 C 21,7 C 82 % 0 lf 1022,2 hPa 0,0 l/m 0 min 0 min 327 W/m 16,7 km/h (3 Bft)
08.08.2015 14:22 21,7 C 21,1 C 82 % 0 lf 1022,3 hPa 0,0 l/m 0 min 0 min 230 W/m 18,8 km/h (3 Bft)
08.08.2015 14:24 21,7 C 21,1 C 82 % 0 lf 1022,4 hPa 0,0 l/m 0 min 0 min 195 W/m 20,9 km/h (4 Bft)
08.08.2015 14:26 21,7 C 21,1 C 82 % 0 lf 1022,3 hPa 0,0 l/m 0 min 0 min 262 W/m 14,6 km/h (3 Bft)
08.08.2015 14:28 21,7 C 21,1 C 82 % 0 lf 1022,2 hPa 0,0 l/m 0 min 0 min 327 W/m 12,6 km/h (3 Bft)
08.08.2015 14:30 21,7 C 21,7 C 82 % 0 lf 1022,1 hPa 0,0 l/m 0 min 0 min 327 W/m 10,5 km/h (2 Bft)
08.08.2015 14:32 21,7 C 21,7 C 82 % 0 lf 1022,2 hPa 0,0 l/m 0 min 0 min 312 W/m 14,6 km/h (3 Bft)
08.08.2015 14:34 21,7 C 21,7 C 82 % 0 lf 1022,2 hPa 0,0 l/m 0 min 0 min 285 W/m 16,7 km/h (3 Bft)
08.08.2015 14:36 21,7 C 21,1 C 82 % 0 lf 1022,2 hPa 0,0 l/m 0 min 0 min 279 W/m 16,7 km/h (3 Bft)
08.08.2015 14:38 21,7 C 21,1 C 81 % 0 lf 1022,1 hPa 0,0 l/m 0 min 0 min 266 W/m 18,8 km/h (3 Bft)
08.08.2015 14:40 21,7 C 20,6 C 82 % 0 lf 1022,1 hPa 0,0 l/m 0 min 0 min 206 W/m 18,8 km/h (3 Bft)
08.08.2015 14:42 21,7 C 20,6 C 82 % 0 lf 1022,1 hPa 0,0 l/m 0 min 0 min 216 W/m 16,7 km/h (3 Bft)
08.08.2015 14:44 21,7 C 21,1 C 82 % 0 lf 1022,1 hPa 0,0 l/m 0 min 0 min 219 W/m 10,5 km/h (2 Bft)
08.08.2015 14:46 21,7 C 21,1 C 82 % 0 lf 1022,1 hPa 0,0 l/m 0 min 0 min 207 W/m 16,7 km/h (3 Bft)
08.08.2015 14:48 21,7 C 21,1 C 82 % 0 lf 1022,1 hPa 0,0 l/m 0 min 0 min 250 W/m 14,6 km/h (3 Bft)
08.08.2015 14:50 21,7 C 21,1 C 82 % 0 lf 1022,2 hPa 0,0 l/m 0 min 0 min 238 W/m 18,8 km/h (3 Bft)
08.08.2015 14:52 21,6 C 21,1 C 82 % 0 lf 1022,1 hPa 0,0 l/m 0 min 0 min 265 W/m 14,6 km/h (3 Bft)
08.08.2015 14:54 21,6 C 21,1 C 82 % 0 lf 1022,1 hPa 0,0 l/m 0 min 0 min 287 W/m 12,6 km/h (3 Bft)
08.08.2015 14:56 21,7 C 21,1 C 82 % 0 lf 1022,1 hPa 0,0 l/m 0 min 0 min 279 W/m 16,7 km/h (3 Bft)
08.08.2015 14:58 21,7 C 21,1 C 83 % 0 lf 1022,1 hPa 0,0 l/m 0 min 0 min 322 W/m 10,5 km/h (2 Bft)
08.08.2015 15:00 21,7 C 21,1 C 82 % 0 lf 1022,1 hPa 0,0 l/m 0 min 0 min 319 W/m 16,7 km/h (3 Bft)
08.08.2015 15:02 21,7 C 21,7 C 82 % 0 lf 1022,1 hPa 0,0 l/m 0 min 0 min 300 W/m 16,7 km/h (3 Bft)
08.08.2015 15:04 21,7 C 21,1 C 82 % 0 lf 1022,2 hPa 0,0 l/m 0 min 0 min 228 W/m 18,8 km/h (3 Bft)
08.08.2015 15:06 21,7 C 20,6 C 82 % 0 lf 1022,2 hPa 0,0 l/m 0 min 0 min 224 W/m 18,8 km/h (3 Bft)
08.08.2015 15:08 21,6 C 20,6 C 82 % 0 lf 1022,2 hPa 0,0 l/m 0 min 0 min 211 W/m 14,6 km/h (3 Bft)
08.08.2015 15:10 21,6 C 20,6 C 81 % 0 lf 1022,3 hPa 0,0 l/m 0 min 0 min 230 W/m 12,6 km/h (3 Bft)
08.08.2015 15:12 21,6 C 21,1 C 82 % 0 lf 1022,2 hPa 0,0 l/m 0 min 0 min 233 W/m 16,7 km/h (3 Bft)
08.08.2015 15:14 21,6 C 21,1 C 82 % 0 lf 1022,2 hPa 0,0 l/m 0 min 0 min 226 W/m 18,8 km/h (3 Bft)
08.08.2015 15:16 21,6 C 20,6 C 82 % 0 lf 1022,2 hPa 0,0 l/m 0 min 0 min 212 W/m 16,7 km/h (3 Bft)
08.08.2015 15:18 21,6 C 20,6 C 82 % 0 lf 1022,1 hPa 0,0 l/m 0 min 0 min 201 W/m 16,7 km/h (3 Bft)
08.08.2015 15:20 21,6 C 20,6 C 82 % 0 lf 1022,1 hPa 0,0 l/m 0 min 0 min 198 W/m 14,6 km/h (3 Bft)
08.08.2015 15:22 21,6 C 20,6 C 82 % 0 lf 1022,2 hPa 0,0 l/m 0 min 0 min 203 W/m 20,9 km/h (4 Bft)
08.08.2015 15:24 21,5 C 20,6 C 82 % 0 lf 1022,2 hPa 0,0 l/m 0 min 0 min 205 W/m 12,6 km/h (3 Bft)
08.08.2015 15:26 21,5 C 20,6 C 82 % 0 lf 1022,2 hPa 0,0 l/m 0 min 0 min 161 W/m 14,6 km/h (3 Bft)
08.08.2015 15:28 21,6 C 20,6 C 82 % 0 lf 1022,3 hPa 0,0 l/m 0 min 0 min 176 W/m 14,6 km/h (3 Bft)
08.08.2015 15:30 21,5 C 20,6 C 82 % 0 lf 1022,3 hPa 0,0 l/m 0 min 0 min 182 W/m 16,7 km/h (3 Bft)
08.08.2015 15:32 21,5 C 20,6 C 82 % 0 lf 1022,3 hPa 0,0 l/m 0 min 0 min 182 W/m 10,5 km/h (2 Bft)
08.08.2015 15:34 21,5 C 20,6 C 82 % 0 lf 1022,2 hPa 0,0 l/m 0 min 0 min 197 W/m 12,6 km/h (3 Bft)
08.08.2015 15:36 21,5 C 20,6 C 82 % 0 lf 1022,3 hPa 0,0 l/m 0 min 0 min 196 W/m 14,6 km/h (3 Bft)
08.08.2015 15:38 21,4 C 20,6 C 82 % 0 lf 1022,3 hPa 0,0 l/m 0 min 0 min 193 W/m 12,6 km/h (3 Bft)
08.08.2015 15:40 21,4 C 20,6 C 83 % 0 lf 1022,3 hPa 0,0 l/m 0 min 0 min 203 W/m 16,7 km/h (3 Bft)
08.08.2015 15:42 21,4 C 21,1 C 83 % 0 lf 1022,3 hPa 0,0 l/m 0 min 0 min 273 W/m 12,6 km/h (3 Bft)
08.08.2015 15:44 21,4 C 21,1 C 83 % 0 lf 1022,3 hPa 0,0 l/m 0 min 0 min 276 W/m 10,5 km/h (2 Bft)
08.08.2015 15:46 21,5 C 21,1 C 83 % 0 lf 1022,3 hPa 0,0 l/m 0 min 0 min 307 W/m 12,6 km/h (3 Bft)
08.08.2015 15:48 21,5 C 21,1 C 82 % 0 lf 1022,3 hPa 0,0 l/m 0 min 0 min 349 W/m 14,6 km/h (3 Bft)
08.08.2015 15:50 21,5 C 21,1 C 82 % 0 lf 1022,4 hPa 0,0 l/m 0 min 0 min 327 W/m 10,5 km/h (2 Bft)
08.08.2015 15:52 21,5 C 21,1 C 82 % 0 lf 1022,4 hPa 0,0 l/m 0 min 0 min 286 W/m 12,6 km/h (3 Bft)
08.08.2015 15:54 21,5 C 21,1 C 82 % 0 lf 1022,4 hPa 0,0 l/m 0 min 0 min 256 W/m 12,6 km/h (3 Bft)
08.08.2015 15:56 21,6 C 21,1 C 82 % 0 lf 1022,4 hPa 0,0 l/m 0 min 0 min 219 W/m 10,5 km/h (2 Bft)
08.08.2015 15:58 21,6 C 21,1 C 82 % 0 lf 1022,4 hPa 0,0 l/m 0 min 0 min 174 W/m 10,5 km/h (2 Bft)
08.08.2015 16:00 21,6 C 21,1 C 82 % 0 lf 1022,3 hPa 0,0 l/m 0 min 0 min 160 W/m 6,3 km/h (2 Bft)
08.08.2015 16:02 21,6 C 20,6 C 82 % 0 lf 1022,5 hPa 0,0 l/m 0 min 0 min 174 W/m 12,6 km/h (3 Bft)
08.08.2015 16:04 21,6 C 20,6 C 81 % 0 lf 1022,4 hPa 0,0 l/m 0 min 0 min 168 W/m 10,5 km/h (2 Bft)
08.08.2015 16:06 21,6 C 20,6 C 81 % 0 lf 1022,4 hPa 0,0 l/m 0 min 0 min 196 W/m 10,5 km/h (2 Bft)
08.08.2015 16:08 21,5 C 20,6 C 81 % 0 lf 1022,4 hPa 0,0 l/m 0 min 0 min 186 W/m 10,5 km/h (2 Bft)
08.08.2015 16:10 21,5 C 20,6 C 81 % 0 lf 1022,4 hPa 0,0 l/m 0 min 0 min 175 W/m 8,4 km/h (2 Bft)
08.08.2015 16:12 21,5 C 20,6 C 82 % 0 lf 1022,3 hPa 0,0 l/m 0 min 0 min 180 W/m 10,5 km/h (2 Bft)
08.08.2015 16:14 21,5 C 21,1 C 81 % 0 lf 1022,3 hPa 0,0 l/m 0 min 0 min 200 W/m 8,4 km/h (2 Bft)
08.08.2015 16:16 21,5 C 21,1 C 82 % 0 lf 1022,3 hPa 0,0 l/m 0 min 0 min 198 W/m 8,4 km/h (2 Bft)
08.08.2015 16:18 21,6 C 21,1 C 82 % 0 lf 1022,3 hPa 0,0 l/m 0 min 0 min 193 W/m 8,4 km/h (2 Bft)
08.08.2015 16:20 21,6 C 21,1 C 82 % 0 lf 1022,2 hPa 0,0 l/m 0 min 0 min 223 W/m 10,5 km/h (2 Bft)
08.08.2015 16:22 21,6 C 21,1 C 82 % 0 lf 1022,2 hPa 0,0 l/m 0 min 0 min 253 W/m 12,6 km/h (3 Bft)
08.08.2015 16:24 21,6 C 21,7 C 81 % 0 lf 1022,2 hPa 0,0 l/m 0 min 0 min 244 W/m 8,4 km/h (2 Bft)
08.08.2015 16:26 21,6 C 21,7 C 82 % 0 lf 1022,3 hPa 0,0 l/m 0 min 0 min 213 W/m 8,4 km/h (2 Bft)
08.08.2015 16:28 21,7 C 21,7 C 82 % 0 lf 1022,3 hPa 0,0 l/m 0 min 0 min 195 W/m 8,4 km/h (2 Bft)
08.08.2015 16:30 21,7 C 21,7 C 82 % 0 lf 1022,2 hPa 0,0 l/m 0 min 0 min 206 W/m 10,5 km/h (2 Bft)
08.08.2015 16:32 21,8 C 21,1 C 82 % 0 lf 1022,2 hPa 0,0 l/m 0 min 0 min 227 W/m 8,4 km/h (2 Bft)
08.08.2015 16:34 21,8 C 21,1 C 81 % 0 lf 1022,2 hPa 0,0 l/m 0 min 0 min 197 W/m 10,5 km/h (2 Bft)
08.08.2015 16:36 21,8 C 21,1 C 81 % 0 lf 1022,2 hPa 0,0 l/m 0 min 0 min 169 W/m 8,4 km/h (2 Bft)
08.08.2015 16:38 21,8 C 21,1 C 81 % 0 lf 1022,3 hPa 0,0 l/m 0 min 0 min 148 W/m 12,6 km/h (3 Bft)
08.08.2015 16:40 21,8 C 21,1 C 81 % 0 lf 1022,3 hPa 0,0 l/m 0 min 0 min 146 W/m 12,6 km/h (3 Bft)
08.08.2015 16:42 21,9 C 20,6 C 81 % 0 lf 1022,3 hPa 0,0 l/m 0 min 0 min 135 W/m 12,6 km/h (3 Bft)
08.08.2015 16:44 21,9 C 20,6 C 81 % 0 lf 1022,3 hPa 0,0 l/m 0 min 0 min 122 W/m 10,5 km/h (2 Bft)
08.08.2015 16:46 21,9 C 20,6 C 81 % 0 lf 1022,3 hPa 0,0 l/m 0 min 0 min 131 W/m 12,6 km/h (3 Bft)
08.08.2015 16:48 21,9 C 20,6 C 81 % 0 lf 1022,4 hPa 0,0 l/m 0 min 0 min 137 W/m 10,5 km/h (2 Bft)
08.08.2015 16:50 21,9 C 20,6 C 81 % 0 lf 1022,4 hPa 0,0 l/m 0 min 0 min 134 W/m 8,4 km/h (2 Bft)
08.08.2015 16:52 21,9 C 21,1 C 81 % 0 lf 1022,3 hPa 0,0 l/m 0 min 0 min 141 W/m 6,3 km/h (2 Bft)
08.08.2015 16:54 21,9 C 21,1 C 81 % 0 lf 1022,3 hPa 0,0 l/m 0 min 0 min 154 W/m 10,5 km/h (2 Bft)
08.08.2015 16:56 21,9 C 21,1 C 82 % 0 lf 1022,3 hPa 0,0 l/m 0 min 0 min 205 W/m 12,6 km/h (3 Bft)
08.08.2015 16:58 21,9 C 21,1 C 81 % 0 lf 1022,3 hPa 0,0 l/m 0 min 0 min 212 W/m 12,6 km/h (3 Bft)
08.08.2015 17:00 21,9 C 21,1 C 81 % 0 lf 1022,3 hPa 0,0 l/m 0 min 0 min 220 W/m 6,3 km/h (2 Bft)
08.08.2015 17:02 21,9 C 21,7 C 81 % 0 lf 1022,3 hPa 0,0 l/m 0 min 0 min 238 W/m 10,5 km/h (2 Bft)
08.08.2015 17:04 22,0 C 21,7 C 81 % 0 lf 1022,2 hPa 0,0 l/m 0 min 0 min 272 W/m 10,5 km/h (2 Bft)
08.08.2015 17:06 22,0 C 21,7 C 81 % 0 lf 1022,2 hPa 0,0 l/m 2 min 0 min 339 W/m 4,2 km/h (1 Bft)
08.08.2015 17:08 22,1 C 21,7 C 81 % 0 lf 1022,2 hPa 0,0 l/m 2 min 0 min 316 W/m 6,3 km/h (2 Bft)
08.08.2015 17:10 22,1 C 21,7 C 81 % 0 lf 1022,2 hPa 0,0 l/m 2 min 0 min 393 W/m 6,3 km/h (2 Bft)
08.08.2015 17:12 22,2 C 21,7 C 81 % 0 lf 1022,1 hPa 0,0 l/m 2 min 0 min 415 W/m 8,4 km/h (2 Bft)
08.08.2015 17:14 22,2 C 22,2 C 81 % 0 lf 1022,1 hPa 0,0 l/m 2 min 0 min 415 W/m 10,5 km/h (2 Bft)
08.08.2015 17:16 22,3 C 22,2 C 81 % 0 lf 1022,1 hPa 0,0 l/m 2 min 0 min 368 W/m 10,5 km/h (2 Bft)
08.08.2015 17:18 22,3 C 22,2 C 81 % 0 lf 1022,1 hPa 0,0 l/m 2 min 0 min 341 W/m 8,4 km/h (2 Bft)
08.08.2015 17:20 22,4 C 22,2 C 80 % 0 lf 1022,1 hPa 0,0 l/m 2 min 0 min 310 W/m 10,5 km/h (2 Bft)
08.08.2015 17:22 22,5 C 22,2 C 80 % 0 lf 1022,1 hPa 0,0 l/m 2 min 0 min 291 W/m 6,3 km/h (2 Bft)
08.08.2015 17:24 22,6 C 22,2 C 79 % 0 lf 1022,3 hPa 0,0 l/m 2 min 0 min 291 W/m 4,2 km/h (1 Bft)
08.08.2015 17:26 22,6 C 22,2 C 79 % 0 lf 1022,2 hPa 0,0 l/m 2 min 0 min 286 W/m 8,4 km/h (2 Bft)
08.08.2015 17:28 22,6 C 22,2 C 79 % 0 lf 1022,2 hPa 0,0 l/m 2 min 0 min 281 W/m 10,5 km/h (2 Bft)
08.08.2015 17:30 22,7 C 21,7 C 79 % 0 lf 1022,3 hPa 0,0 l/m 0 min 0 min 247 W/m 12,6 km/h (3 Bft)
08.08.2015 17:32 22,7 C 21,7 C 79 % 0 lf 1022,3 hPa 0,0 l/m 0 min 0 min 203 W/m 10,5 km/h (2 Bft)
08.08.2015 17:34 22,7 C 21,7 C 79 % 0 lf 1022,4 hPa 0,0 l/m 0 min 0 min 178 W/m 14,6 km/h (3 Bft)
08.08.2015 17:36 22,8 C 21,7 C 79 % 0 lf 1022,4 hPa 0,0 l/m 0 min 0 min 172 W/m 8,4 km/h (2 Bft)
08.08.2015 17:38 22,8 C 21,7 C 79 % 0 lf 1022,5 hPa 0,0 l/m 0 min 0 min 168 W/m 8,4 km/h (2 Bft)
08.08.2015 17:40 22,8 C 21,7 C 79 % 0 lf 1022,5 hPa 0,0 l/m 0 min 0 min 155 W/m 6,3 km/h (2 Bft)
08.08.2015 17:42 22,8 C 21,7 C 79 % 0 lf 1022,4 hPa 0,0 l/m 0 min 0 min 136 W/m 6,3 km/h (2 Bft)
08.08.2015 17:44 22,8 C 21,7 C 79 % 0 lf 1022,3 hPa 0,0 l/m 0 min 0 min 126 W/m 6,3 km/h (2 Bft)
08.08.2015 17:46 22,8 C 21,1 C 78 % 0 lf 1022,2 hPa 0,0 l/m 0 min 0 min 127 W/m 6,3 km/h (2 Bft)
08.08.2015 17:48 22,7 C 21,1 C 78 % 0 lf 1022,3 hPa 0,0 l/m 0 min 0 min 130 W/m 4,2 km/h (1 Bft)
08.08.2015 17:50 22,7 C 21,1 C 78 % 0 lf 1022,3 hPa 0,0 l/m 0 min 0 min 124 W/m 8,4 km/h (2 Bft)
08.08.2015 17:52 22,7 C 21,1 C 78 % 0 lf 1022,2 hPa 0,0 l/m 0 min 0 min 111 W/m 8,4 km/h (2 Bft)
08.08.2015 17:54 22,7 C 21,1 C 78 % 0 lf 1022,2 hPa 0,0 l/m 0 min 0 min 98 W/m 6,3 km/h (2 Bft)
08.08.2015 17:56 22,7 C 21,1 C 78 % 0 lf 1022,2 hPa 0,0 l/m 0 min 0 min 93 W/m 4,2 km/h (1 Bft)
08.08.2015 17:58 22,7 C 21,1 C 78 % 0 lf 1022,2 hPa 0,0 l/m 0 min 0 min 102 W/m 8,4 km/h (2 Bft)
08.08.2015 18:00 22,7 C 21,1 C 78 % 0 lf 1022,2 hPa 0,0 l/m 0 min 0 min 116 W/m 4,2 km/h (1 Bft)
08.08.2015 18:02 22,7 C 21,1 C 79 % 0 lf 1022,2 hPa 0,0 l/m 0 min 0 min 122 W/m 6,3 km/h (2 Bft)
08.08.2015 18:05 22,7 C 21,1 C 79 % 0 lf 1022,2 hPa 0,0 l/m 0 min 0 min 149 W/m 6,3 km/h (2 Bft)
08.08.2015 18:08 22,7 C 21,7 C 80 % 0 lf 1022,2 hPa 0,0 l/m 0 min 0 min 145 W/m 8,4 km/h (2 Bft)
08.08.2015 18:10 22,7 C 21,7 C 79 % 0 lf 1022,2 hPa 0,0 l/m 0 min 0 min 174 W/m 8,4 km/h (2 Bft)
08.08.2015 18:12 22,7 C 21,7 C 79 % 0 lf 1022,1 hPa 0,0 l/m 0 min 0 min 180 W/m 8,4 km/h (2 Bft)
08.08.2015 18:14 22,7 C 21,7 C 79 % 0 lf 1022,1 hPa 0,0 l/m 0 min 0 min 187 W/m 10,5 km/h (2 Bft)
08.08.2015 18:16 22,7 C 21,7 C 79 % 0 lf 1022,1 hPa 0,0 l/m 0 min 0 min 189 W/m 10,5 km/h (2 Bft)
08.08.2015 18:18 22,7 C 21,7 C 78 % 0 lf 1022,0 hPa 0,0 l/m 0 min 0 min 194 W/m 14,6 km/h (3 Bft)
08.08.2015 18:20 22,6 C 21,7 C 77 % 0 lf 1022,0 hPa 0,0 l/m 0 min 0 min 197 W/m 16,7 km/h (3 Bft)
08.08.2015 18:22 22,6 C 21,7 C 77 % 0 lf 1022,0 hPa 0,0 l/m 2 min 0 min 206 W/m 16,7 km/h (3 Bft)
08.08.2015 18:24 22,6 C 21,7 C 77 % 0 lf 1022,0 hPa 0,0 l/m 0 min 0 min 197 W/m 10,5 km/h (2 Bft)
08.08.2015 18:26 22,6 C 21,7 C 77 % 0 lf 1022,0 hPa 0,0 l/m 0 min 0 min 188 W/m 8,4 km/h (2 Bft)
08.08.2015 18:28 22,6 C 21,7 C 77 % 0 lf 1022,0 hPa 0,0 l/m 0 min 0 min 187 W/m 14,6 km/h (3 Bft)
08.08.2015 18:30 22,6 C 21,7 C 77 % 0 lf 1022,0 hPa 0,0 l/m 0 min 0 min 183 W/m 14,6 km/h (3 Bft)
08.08.2015 18:32 22,6 C 21,7 C 77 % 0 lf 1022,0 hPa 0,0 l/m 0 min 0 min 184 W/m 10,5 km/h (2 Bft)
08.08.2015 18:34 22,6 C 21,7 C 77 % 0 lf 1022,0 hPa 0,0 l/m 0 min 0 min 177 W/m 8,4 km/h (2 Bft)
08.08.2015 18:36 22,6 C 21,7 C 77 % 0 lf 1022,0 hPa 0,0 l/m 0 min 0 min 178 W/m 8,4 km/h (2 Bft)
08.08.2015 18:38 22,6 C 21,7 C 77 % 0 lf 1022,0 hPa 0,0 l/m 0 min 0 min 178 W/m 10,5 km/h (2 Bft)
08.08.2015 18:40 22,6 C 21,7 C 77 % 0 lf 1022,0 hPa 0,0 l/m 0 min 0 min 171 W/m 10,5 km/h (2 Bft)
08.08.2015 18:42 22,6 C 21,1 C 77 % 0 lf 1022,0 hPa 0,0 l/m 0 min 0 min 170 W/m 12,6 km/h (3 Bft)
08.08.2015 18:44 22,5 C 21,1 C 77 % 0 lf 1022,0 hPa 0,0 l/m 0 min 0 min 164 W/m 10,5 km/h (2 Bft)
08.08.2015 18:46 22,5 C 21,1 C 77 % 0 lf 1022,1 hPa 0,0 l/m 0 min 0 min 162 W/m 12,6 km/h (3 Bft)
08.08.2015 18:48 22,5 C 21,1 C 77 % 0 lf 1022,0 hPa 0,0 l/m 0 min 0 min 159 W/m 10,5 km/h (2 Bft)
08.08.2015 18:50 22,5 C 21,1 C 77 % 0 lf 1022,0 hPa 0,0 l/m 0 min 0 min 161 W/m 14,6 km/h (3 Bft)
08.08.2015 18:52 22,4 C 21,1 C 78 % 0 lf 1022,0 hPa 0,0 l/m 0 min 0 min 155 W/m 12,6 km/h (3 Bft)
08.08.2015 18:54 22,4 C 21,1 C 78 % 0 lf 1022,0 hPa 0,0 l/m 0 min 0 min 157 W/m 6,3 km/h (2 Bft)
08.08.2015 18:56 22,4 C 21,1 C 78 % 0 lf 1022,0 hPa 0,0 l/m 0 min 0 min 153 W/m 8,4 km/h (2 Bft)
08.08.2015 18:58 22,4 C 21,1 C 78 % 0 lf 1022,0 hPa 0,0 l/m 0 min 0 min 149 W/m 8,4 km/h (2 Bft)
08.08.2015 19:00 22,4 C 21,1 C 79 % 0 lf 1022,0 hPa 0,0 l/m 0 min 0 min 145 W/m 8,4 km/h (2 Bft)
08.08.2015 19:02 22,4 C 21,1 C 79 % 0 lf 1022,0 hPa 0,0 l/m 0 min 0 min 140 W/m 6,3 km/h (2 Bft)
08.08.2015 19:04 22,4 C 21,1 C 79 % 0 lf 1022,0 hPa 0,0 l/m 0 min 0 min 139 W/m 8,4 km/h (2 Bft)
08.08.2015 19:06 22,4 C 21,1 C 79 % 0 lf 1022,0 hPa 0,0 l/m 0 min 0 min 138 W/m 8,4 km/h (2 Bft)
08.08.2015 19:08 22,4 C 21,1 C 78 % 0 lf 1022,0 hPa 0,0 l/m 0 min 0 min 135 W/m 12,6 km/h (3 Bft)
08.08.2015 19:10 22,4 C 21,1 C 78 % 0 lf 1022,0 hPa 0,0 l/m 0 min 0 min 132 W/m 8,4 km/h (2 Bft)
08.08.2015 19:12 22,4 C 21,1 C 78 % 0 lf 1022,0 hPa 0,0 l/m 0 min 0 min 129 W/m 10,5 km/h (2 Bft)
08.08.2015 19:14 22,4 C 21,1 C 78 % 0 lf 1022,0 hPa 0,0 l/m 0 min 0 min 126 W/m 12,6 km/h (3 Bft)
08.08.2015 19:16 22,4 C 21,1 C 78 % 0 lf 1022,0 hPa 0,0 l/m 0 min 0 min 125 W/m 10,5 km/h (2 Bft)
08.08.2015 19:18 22,4 C 21,1 C 77 % 0 lf 1022,0 hPa 0,0 l/m 0 min 0 min 124 W/m 10,5 km/h (2 Bft)
08.08.2015 19:20 22,4 C 21,1 C 78 % 0 lf 1022,0 hPa 0,0 l/m 0 min 0 min 118 W/m 10,5 km/h (2 Bft)
08.08.2015 19:22 22,4 C 21,1 C 78 % 0 lf 1021,9 hPa 0,0 l/m 0 min 0 min 112 W/m 14,6 km/h (3 Bft)
08.08.2015 19:24 22,4 C 21,1 C 78 % 0 lf 1021,9 hPa 0,0 l/m 0 min 0 min 106 W/m 14,6 km/h (3 Bft)
08.08.2015 19:26 22,3 C 21,1 C 77 % 0 lf 1022,0 hPa 0,0 l/m 0 min 0 min 105 W/m 12,6 km/h (3 Bft)
08.08.2015 19:28 22,3 C 21,1 C 77 % 0 lf 1021,9 hPa 0,0 l/m 0 min 0 min 102 W/m 12,6 km/h (3 Bft)
08.08.2015 19:30 22,3 C 21,1 C 77 % 0 lf 1021,9 hPa 0,0 l/m 0 min 0 min 99 W/m 8,4 km/h (2 Bft)
08.08.2015 19:32 22,3 C 21,1 C 77 % 0 lf 1021,9 hPa 0,0 l/m 0 min 0 min 96 W/m 10,5 km/h (2 Bft)
08.08.2015 19:34 22,2 C 20,6 C 77 % 0 lf 1021,9 hPa 0,0 l/m 0 min 0 min 92 W/m 10,5 km/h (2 Bft)
08.08.2015 19:36 22,2 C 20,6 C 77 % 0 lf 1021,9 hPa 0,0 l/m 0 min 0 min 87 W/m 6,3 km/h (2 Bft)
08.08.2015 19:38 22,2 C 20,6 C 77 % 0 lf 1021,8 hPa 0,0 l/m 0 min 0 min 81 W/m 6,3 km/h (2 Bft)
08.08.2015 19:40 22,2 C 20,6 C 77 % 0 lf 1021,8 hPa 0,0 l/m 0 min 0 min 76 W/m 8,4 km/h (2 Bft)
08.08.2015 19:42 22,2 C 20,6 C 78 % 0 lf 1021,8 hPa 0,0 l/m 0 min 0 min 72 W/m 4,2 km/h (1 Bft)
08.08.2015 19:44 22,2 C 20,6 C 78 % 0 lf 1021,8 hPa 0,0 l/m 0 min 0 min 72 W/m 6,3 km/h (2 Bft)
08.08.2015 19:46 22,2 C 20,6 C 79 % 0 lf 1021,8 hPa 0,0 l/m 0 min 0 min 72 W/m 6,3 km/h (2 Bft)
08.08.2015 19:48 22,2 C 20,6 C 80 % 0 lf 1021,7 hPa 0,0 l/m 0 min 0 min 70 W/m 4,2 km/h (1 Bft)
08.08.2015 19:50 22,2 C 20,6 C 80 % 0 lf 1021,8 hPa 0,0 l/m 0 min 0 min 69 W/m 6,3 km/h (2 Bft)
08.08.2015 19:52 22,2 C 20,6 C 80 % 0 lf 1021,8 hPa 0,0 l/m 0 min 0 min 66 W/m 4,2 km/h (1 Bft)
08.08.2015 19:54 22,2 C 20,6 C 80 % 0 lf 1021,7 hPa 0,0 l/m 0 min 0 min 63 W/m 4,2 km/h (1 Bft)
08.08.2015 19:56 22,2 C 20,6 C 80 % 0 lf 1021,7 hPa 0,0 l/m 0 min 0 min 60 W/m 6,3 km/h (2 Bft)
08.08.2015 19:58 22,2 C 20,0 C 80 % 0 lf 1021,7 hPa 0,0 l/m 0 min 0 min 56 W/m 4,2 km/h (1 Bft)
08.08.2015 20:00 22,2 C 20,0 C 80 % 0 lf 1021,7 hPa 0,0 l/m 0 min 0 min 52 W/m 4,2 km/h (1 Bft)
08.08.2015 20:02 22,1 C 20,0 C 80 % 0 lf 1021,7 hPa 0,0 l/m 0 min 0 min 49 W/m 4,2 km/h (1 Bft)
08.08.2015 20:04 22,1 C 20,0 C 80 % 0 lf 1021,8 hPa 0,0 l/m 0 min 0 min 47 W/m 4,2 km/h (1 Bft)
08.08.2015 20:06 22,1 C 20,0 C 81 % 0 lf 1021,8 hPa 0,0 l/m 0 min 0 min 45 W/m 6,3 km/h (2 Bft)
08.08.2015 20:08 22,1 C 20,0 C 81 % 0 lf 1021,7 hPa 0,0 l/m 0 min 0 min 42 W/m 6,3 km/h (2 Bft)
08.08.2015 20:10 22,1 C 20,0 C 81 % 0 lf 1021,8 hPa 0,0 l/m 0 min 0 min 42 W/m 6,3 km/h (2 Bft)
08.08.2015 20:12 22,0 C 20,0 C 81 % 0 lf 1021,7 hPa 0,0 l/m 0 min 0 min 41 W/m 4,2 km/h (1 Bft)
08.08.2015 20:14 22,0 C 20,0 C 82 % 0 lf 1021,8 hPa 0,0 l/m 0 min 0 min 40 W/m 4,2 km/h (1 Bft)
08.08.2015 20:16 21,9 C 19,4 C 82 % 0 lf 1021,8 hPa 0,0 l/m 0 min 0 min 39 W/m 4,2 km/h (1 Bft)
08.08.2015 20:18 21,9 C 19,4 C 82 % 0 lf 1021,7 hPa 0,0 l/m 0 min 0 min 37 W/m 4,2 km/h (1 Bft)
08.08.2015 20:20 21,9 C 19,4 C 82 % 0 lf 1021,7 hPa 0,0 l/m 0 min 0 min 36 W/m 4,2 km/h (1 Bft)
08.08.2015 20:22 21,9 C 19,4 C 82 % 0 lf 1021,7 hPa 0,0 l/m 0 min 0 min 35 W/m 8,4 km/h (2 Bft)
08.08.2015 20:24 21,8 C 19,4 C 81 % 0 lf 1021,7 hPa 0,0 l/m 0 min 0 min 35 W/m 6,3 km/h (2 Bft)
08.08.2015 20:26 21,8 C 19,4 C 81 % 0 lf 1021,7 hPa 0,0 l/m 0 min 0 min 36 W/m 6,3 km/h (2 Bft)
08.08.2015 20:28 21,7 C 19,4 C 81 % 0 lf 1021,8 hPa 0,0 l/m 0 min 0 min 34 W/m 6,3 km/h (2 Bft)
08.08.2015 20:30 21,7 C 19,4 C 81 % 0 lf 1021,7 hPa 0,0 l/m 0 min 0 min 32 W/m 4,2 km/h (1 Bft)
08.08.2015 20:32 21,7 C 19,4 C 81 % 0 lf 1021,8 hPa 0,0 l/m 0 min 0 min 30 W/m 4,2 km/h (1 Bft)
08.08.2015 20:34 21,7 C 19,4 C 81 % 0 lf 1021,8 hPa 0,0 l/m 0 min 0 min 33 W/m 4,2 km/h (1 Bft)
08.08.2015 20:36 21,6 C 19,4 C 81 % 0 lf 1021,8 hPa 0,0 l/m 2 min 0 min 37 W/m 4,2 km/h (1 Bft)
08.08.2015 20:38 21,6 C 18,9 C 81 % 0 lf 1021,8 hPa 0,0 l/m 2 min 0 min 41 W/m 4,2 km/h (1 Bft)
08.08.2015 20:40 21,6 C 18,9 C 81 % 0 lf 1021,7 hPa 0,0 l/m 2 min 0 min 41 W/m 2,1 km/h (1 Bft)
08.08.2015 20:42 21,6 C 18,9 C 81 % 0 lf 1021,8 hPa 0,0 l/m 2 min 0 min 39 W/m 2,1 km/h (1 Bft)
08.08.2015 20:44 21,6 C 18,9 C 82 % 0 lf 1021,7 hPa 0,0 l/m 2 min 0 min 36 W/m 4,2 km/h (1 Bft)
08.08.2015 20:46 21,5 C 18,9 C 82 % 0 lf 1021,8 hPa 0,0 l/m 2 min 0 min 33 W/m 4,2 km/h (1 Bft)
08.08.2015 20:48 21,5 C 18,9 C 82 % 0 lf 1021,8 hPa 0,0 l/m 2 min 0 min 31 W/m 6,3 km/h (2 Bft)
08.08.2015 20:50 21,5 C 18,9 C 82 % 0 lf 1021,8 hPa 0,0 l/m 2 min 0 min 28 W/m 6,3 km/h (2 Bft)
08.08.2015 20:52 21,4 C 18,9 C 83 % 0 lf 1021,8 hPa 0,0 l/m 2 min 0 min 26 W/m 4,2 km/h (1 Bft)
08.08.2015 20:54 21,4 C 18,9 C 83 % 0 lf 1021,8 hPa 0,0 l/m 2 min 0 min 23 W/m 2,1 km/h (1 Bft)
08.08.2015 20:56 21,4 C 18,9 C 83 % 0 lf 1021,8 hPa 0,0 l/m 2 min 0 min 20 W/m 4,2 km/h (1 Bft)
08.08.2015 20:58 21,4 C 18,9 C 83 % 0 lf 1021,8 hPa 0,0 l/m 0 min 0 min 18 W/m 2,1 km/h (1 Bft)
08.08.2015 21:00 21,3 C 18,9 C 83 % 0 lf 1021,7 hPa 0,0 l/m 0 min 0 min 15 W/m 4,2 km/h (1 Bft)
08.08.2015 21:02 21,3 C 18,3 C 83 % 0 lf 1021,7 hPa 0,0 l/m 0 min 0 min 14 W/m 4,2 km/h (1 Bft)
08.08.2015 21:04 21,3 C 18,3 C 83 % 0 lf 1021,8 hPa 0,0 l/m 0 min 0 min 12 W/m 4,2 km/h (1 Bft)
08.08.2015 21:06 21,2 C 18,3 C 83 % 0 lf 1021,8 hPa 0,0 l/m 0 min 0 min 12 W/m 2,1 km/h (1 Bft)
08.08.2015 21:08 21,2 C 18,3 C 84 % 0 lf 1021,7 hPa 0,0 l/m 0 min 0 min 11 W/m 4,2 km/h (1 Bft)
08.08.2015 21:10 21,2 C 18,3 C 84 % 0 lf 1021,7 hPa 0,0 l/m 0 min 0 min 11 W/m 4,2 km/h (1 Bft)
08.08.2015 21:12 21,2 C 18,3 C 84 % 0 lf 1021,7 hPa 0,0 l/m 0 min 0 min 11 W/m 2,1 km/h (1 Bft)
08.08.2015 21:14 21,1 C 18,3 C 84 % 0 lf 1021,8 hPa 0,0 l/m 0 min 0 min 11 W/m 2,1 km/h (1 Bft)
08.08.2015 21:16 21,1 C 18,3 C 84 % 0 lf 1021,8 hPa 0,0 l/m 0 min 0 min 10 W/m 2,1 km/h (1 Bft)
08.08.2015 21:18 21,1 C 18,3 C 84 % 0 lf 1021,9 hPa 0,0 l/m 0 min 0 min 9 W/m 2,1 km/h (1 Bft)
08.08.2015 21:20 21,0 C 17,8 C 84 % 0 lf 1021,8 hPa 0,0 l/m 0 min 0 min 8 W/m 2,1 km/h (1 Bft)
08.08.2015 21:22 21,0 C 17,8 C 85 % 0 lf 1021,8 hPa 0,0 l/m 0 min 0 min 3 W/m 2,1 km/h (1 Bft)
08.08.2015 21:24 21,0 C 17,8 C 85 % 0 lf 1021,9 hPa 0,0 l/m 0 min 0 min 0 W/m 2,1 km/h (1 Bft)
08.08.2015 21:26 20,9 C 17,8 C 85 % 0 lf 1021,8 hPa 0,0 l/m 0 min 0 min 0 W/m 2,1 km/h (1 Bft)
08.08.2015 21:28 20,9 C 17,8 C 85 % 0 lf 1021,9 hPa 0,0 l/m 0 min 0 min 0 W/m 4,2 km/h (1 Bft)
08.08.2015 21:30 20,9 C 17,8 C 85 % 0 lf 1021,8 hPa 0,0 l/m 0 min 0 min 0 W/m 4,2 km/h (1 Bft)
08.08.2015 21:32 20,8 C 17,8 C 85 % 0 lf 1021,8 hPa 0,0 l/m 0 min 0 min 0 W/m 2,1 km/h (1 Bft)
08.08.2015 21:34 20,8 C 17,8 C 85 % 0 lf 1021,9 hPa 0,0 l/m 0 min 0 min 0 W/m 2,1 km/h (1 Bft)
08.08.2015 21:36 20,7 C 17,8 C 85 % 0 lf 1021,9 hPa 0,0 l/m 0 min 0 min 0 W/m 2,1 km/h (1 Bft)
08.08.2015 21:38 20,7 C 17,2 C 85 % 0 lf 1021,9 hPa 0,0 l/m 0 min 0 min 0 W/m 0,0 km/h (0 Bft)
08.08.2015 21:40 20,6 C 17,2 C 85 % 0 lf 1021,8 hPa 0,0 l/m 0 min 0 min 0 W/m 0,0 km/h (0 Bft)
08.08.2015 21:42 20,6 C 17,2 C 85 % 0 lf 1021,9 hPa 0,0 l/m 0 min 0 min 0 W/m 2,1 km/h (1 Bft)
08.08.2015 21:44 20,5 C 17,2 C 85 % 0 lf 1021,8 hPa 0,0 l/m 0 min 0 min 0 W/m 2,1 km/h (1 Bft)
08.08.2015 21:46 20,5 C 17,2 C 85 % 0 lf 1021,8 hPa 0,0 l/m 0 min 0 min 0 W/m 2,1 km/h (1 Bft)
08.08.2015 21:48 20,4 C 17,2 C 86 % 0 lf 1021,8 hPa 0,0 l/m 0 min 0 min 0 W/m 0,0 km/h (0 Bft)
08.08.2015 21:50 20,4 C 17,2 C 86 % 0 lf 1021,9 hPa 0,0 l/m 0 min 0 min 0 W/m 2,1 km/h (1 Bft)
08.08.2015 21:52 20,3 C 17,2 C 86 % 0 lf 1021,8 hPa 0,0 l/m 0 min 0 min 0 W/m 2,1 km/h (1 Bft)
08.08.2015 21:54 20,3 C 17,2 C 86 % 0 lf 1021,8 hPa 0,0 l/m 0 min 0 min 0 W/m 0,0 km/h (0 Bft)
08.08.2015 21:56 20,2 C 17,2 C 86 % 0 lf 1021,9 hPa 0,0 l/m 0 min 0 min 0 W/m 0,0 km/h (0 Bft)
08.08.2015 21:58 20,2 C 17,2 C 86 % 0 lf 1021,9 hPa 0,0 l/m 0 min 0 min 0 W/m 0,0 km/h (0 Bft)
08.08.2015 22:00 20,2 C 17,2 C 87 % 0 lf 1021,8 hPa 0,0 l/m 0 min 0 min 0 W/m 0,0 km/h (0 Bft)
08.08.2015 22:02 20,1 C 17,2 C 86 % 0 lf 1021,9 hPa 0,0 l/m 0 min 0 min 0 W/m 0,0 km/h (0 Bft)
08.08.2015 22:04 20,1 C 17,2 C 87 % 0 lf 1021,8 hPa 0,0 l/m 0 min 0 min 0 W/m 0,0 km/h (0 Bft)
08.08.2015 22:06 20,1 C 17,2 C 87 % 1 lf 1021,9 hPa 0,0 l/m 0 min 0 min 0 W/m 0,0 km/h (0 Bft)
08.08.2015 22:08 20,0 C 17,2 C 87 % 0 lf 1022,0 hPa 0,0 l/m 0 min 0 min 0 W/m 0,0 km/h (0 Bft)
08.08.2015 22:10 19,9 C 17,2 C 87 % 0 lf 1022,0 hPa 0,0 l/m 0 min 0 min 0 W/m 2,1 km/h (1 Bft)
08.08.2015 22:12 19,9 C 17,2 C 87 % 1 lf 1021,9 hPa 0,0 l/m 0 min 0 min 0 W/m 2,1 km/h (1 Bft)
08.08.2015 22:14 19,9 C 17,2 C 87 % 1 lf 1022,0 hPa 0,0 l/m 0 min 0 min 0 W/m 0,0 km/h (0 Bft)
08.08.2015 22:16 19,8 C 17,2 C 88 % 1 lf 1022,0 hPa 0,0 l/m 0 min 0 min 0 W/m 2,1 km/h (1 Bft)
08.08.2015 22:18 19,8 C 17,2 C 88 % 1 lf 1022,0 hPa 0,0 l/m 0 min 0 min 0 W/m 2,1 km/h (1 Bft)
08.08.2015 22:20 19,8 C 17,2 C 88 % 1 lf 1022,0 hPa 0,0 l/m 0 min 0 min 0 W/m 2,1 km/h (1 Bft)
08.08.2015 22:22 19,7 C 16,7 C 88 % 1 lf 1022,0 hPa 0,0 l/m 0 min 0 min 0 W/m 2,1 km/h (1 Bft)
08.08.2015 22:24 19,7 C 17,2 C 88 % 1 lf 1022,0 hPa 0,0 l/m 0 min 0 min 0 W/m 4,2 km/h (1 Bft)
08.08.2015 22:26 19,7 C 17,2 C 88 % 1 lf 1022,0 hPa 0,0 l/m 0 min 0 min 0 W/m 2,1 km/h (1 Bft)
08.08.2015 22:28 19,6 C 16,7 C 88 % 1 lf 1022,0 hPa 0,0 l/m 0 min 0 min 0 W/m 2,1 km/h (1 Bft)
08.08.2015 22:30 19,6 C 16,7 C 88 % 1 lf 1022,1 hPa 0,0 l/m 0 min 0 min 0 W/m 2,1 km/h (1 Bft)
08.08.2015 22:32 19,5 C 16,7 C 89 % 1 lf 1022,0 hPa 0,0 l/m 0 min 0 min 0 W/m 2,1 km/h (1 Bft)
08.08.2015 22:34 19,5 C 16,7 C 89 % 1 lf 1022,1 hPa 0,0 l/m 0 min 0 min 0 W/m 0,0 km/h (0 Bft)
08.08.2015 22:36 19,4 C 16,7 C 89 % 1 lf 1022,1 hPa 0,0 l/m 0 min 0 min 0 W/m 0,0 km/h (0 Bft)
08.08.2015 22:38 19,4 C 16,7 C 89 % 1 lf 1022,1 hPa 0,0 l/m 0 min 0 min 0 W/m 2,1 km/h (1 Bft)
08.08.2015 22:40 19,3 C 16,7 C 89 % 1 lf 1022,1 hPa 0,0 l/m 0 min 0 min 0 W/m 2,1 km/h (1 Bft)
08.08.2015 22:42 19,3 C 16,7 C 89 % 1 lf 1022,1 hPa 0,0 l/m 0 min 0 min 0 W/m 2,1 km/h (1 Bft)
08.08.2015 22:44 19,3 C 16,7 C 89 % 1 lf 1022,1 hPa 0,0 l/m 0 min 0 min 0 W/m 2,1 km/h (1 Bft)
08.08.2015 22:46 19,2 C 16,7 C 89 % 1 lf 1022,1 hPa 0,0 l/m 0 min 0 min 0 W/m 2,1 km/h (1 Bft)
08.08.2015 22:48 19,2 C 16,7 C 89 % 1 lf 1022,2 hPa 0,0 l/m 0 min 0 min 0 W/m 0,0 km/h (0 Bft)
08.08.2015 22:50 19,2 C 16,7 C 89 % 1 lf 1022,2 hPa 0,0 l/m 0 min 0 min 0 W/m 2,1 km/h (1 Bft)
08.08.2015 22:52 19,2 C 16,7 C 90 % 1 lf 1022,2 hPa 0,0 l/m 0 min 0 min 0 W/m 2,1 km/h (1 Bft)
08.08.2015 22:54 19,2 C 16,7 C 90 % 1 lf 1022,2 hPa 0,0 l/m 0 min 0 min 0 W/m 2,1 km/h (1 Bft)
08.08.2015 22:56 19,1 C 16,7 C 90 % 1 lf 1022,2 hPa 0,0 l/m 0 min 0 min 0 W/m 0,0 km/h (0 Bft)
08.08.2015 22:58 19,1 C 16,7 C 90 % 1 lf 1022,2 hPa 0,0 l/m 0 min 0 min 0 W/m 2,1 km/h (1 Bft)
08.08.2015 23:00 19,1 C 16,7 C 90 % 1 lf 1022,3 hPa 0,0 l/m 0 min 0 min 0 W/m 2,1 km/h (1 Bft)
08.08.2015 23:02 19,0 C 16,7 C 90 % 1 lf 1022,3 hPa 0,0 l/m 0 min 0 min 0 W/m 0,0 km/h (0 Bft)
08.08.2015 23:04 19,0 C 16,7 C 90 % 1 lf 1022,4 hPa 0,0 l/m 0 min 0 min 0 W/m 0,0 km/h (0 Bft)
08.08.2015 23:06 18,9 C 16,7 C 90 % 1 lf 1022,3 hPa 0,0 l/m 0 min 0 min 0 W/m 0,0 km/h (0 Bft)
08.08.2015 23:08 18,9 C 16,7 C 90 % 1 lf 1022,3 hPa 0,0 l/m 0 min 0 min 0 W/m 0,0 km/h (0 Bft)
08.08.2015 23:10 18,9 C 16,7 C 90 % 2 lf 1022,4 hPa 0,0 l/m 0 min 0 min 0 W/m 0,0 km/h (0 Bft)
08.08.2015 23:12 18,8 C 16,7 C 90 % 2 lf 1022,3 hPa 0,0 l/m 0 min 0 min 0 W/m 0,0 km/h (0 Bft)
08.08.2015 23:14 18,8 C 16,7 C 90 % 2 lf 1022,3 hPa 0,0 l/m 0 min 0 min 0 W/m 0,0 km/h (0 Bft)
08.08.2015 23:16 18,8 C 16,7 C 91 % 2 lf 1022,3 hPa 0,0 l/m 0 min 0 min 0 W/m 0,0 km/h (0 Bft)
08.08.2015 23:18 18,8 C 16,7 C 91 % 2 lf 1022,4 hPa 0,0 l/m 0 min 0 min 0 W/m 0,0 km/h (0 Bft)
08.08.2015 23:20 18,8 C 16,7 C 91 % 2 lf 1022,4 hPa 0,0 l/m 0 min 0 min 0 W/m 0,0 km/h (0 Bft)
08.08.2015 23:22 18,7 C 16,7 C 91 % 2 lf 1022,3 hPa 0,0 l/m 0 min 0 min 0 W/m 0,0 km/h (0 Bft)
08.08.2015 23:24 18,7 C 16,7 C 91 % 2 lf 1022,4 hPa 0,0 l/m 0 min 0 min 0 W/m 2,1 km/h (1 Bft)
08.08.2015 23:26 18,7 C 16,7 C 91 % 2 lf 1022,3 hPa 0,0 l/m 0 min 0 min 0 W/m 2,1 km/h (1 Bft)
08.08.2015 23:28 18,7 C 16,7 C 91 % 2 lf 1022,4 hPa 0,0 l/m 0 min 0 min 0 W/m 2,1 km/h (1 Bft)
08.08.2015 23:30 18,7 C 16,7 C 91 % 1 lf 1022,4 hPa 0,0 l/m 0 min 0 min 0 W/m 2,1 km/h (1 Bft)
08.08.2015 23:32 18,6 C 16,7 C 91 % 1 lf 1022,3 hPa 0,0 l/m 0 min 0 min 0 W/m 2,1 km/h (1 Bft)
08.08.2015 23:34 18,6 C 16,7 C 91 % 1 lf 1022,3 hPa 0,0 l/m 0 min 0 min 0 W/m 0,0 km/h (0 Bft)
08.08.2015 23:36 18,6 C 16,7 C 91 % 1 lf 1022,3 hPa 0,0 l/m 0 min 0 min 0 W/m 0,0 km/h (0 Bft)
08.08.2015 23:38 18,6 C 16,7 C 91 % 1 lf 1022,3 hPa 0,0 l/m 0 min 0 min 0 W/m 4,2 km/h (1 Bft)
08.08.2015 23:40 18,5 C 16,7 C 91 % 2 lf 1022,3 hPa 0,0 l/m 0 min 0 min 0 W/m 4,2 km/h (1 Bft)
08.08.2015 23:42 18,5 C 16,7 C 92 % 2 lf 1022,3 hPa 0,0 l/m 0 min 0 min 0 W/m 4,2 km/h (1 Bft)
08.08.2015 23:44 18,5 C 16,1 C 92 % 2 lf 1022,3 hPa 0,0 l/m 0 min 0 min 0 W/m 2,1 km/h (1 Bft)
08.08.2015 23:46 18,4 C 16,1 C 92 % 2 lf 1022,3 hPa 0,0 l/m 0 min 0 min 0 W/m 0,0 km/h (0 Bft)
08.08.2015 23:48 18,4 C 16,1 C 92 % 2 lf 1022,3 hPa 0,0 l/m 0 min 0 min 0 W/m 2,1 km/h (1 Bft)
08.08.2015 23:50 18,4 C 16,1 C 92 % 2 lf 1022,4 hPa 0,0 l/m 0 min 0 min 0 W/m 2,1 km/h (1 Bft)
08.08.2015 23:52 18,4 C 16,1 C 92 % 2 lf 1022,3 hPa 0,0 l/m 0 min 0 min 0 W/m 2,1 km/h (1 Bft)
08.08.2015 23:54 18,3 C 16,1 C 92 % 2 lf 1022,3 hPa 0,0 l/m 0 min 0 min 0 W/m 0,0 km/h (0 Bft)
08.08.2015 23:56 18,3 C 16,1 C 92 % 2 lf 1022,3 hPa 0,0 l/m 0 min 0 min 0 W/m 2,1 km/h (1 Bft)
08.08.2015 23:58 18,3 C 16,1 C 92 % 3 lf 1022,3 hPa 0,0 l/m 0 min 0 min 0 W/m 0,0 km/h (0 Bft)
_ Min-Zeit 08:10 07:58 18:20 09:24 00:28 - - - - 21:38
Minimum _ 17,7 C 16,1 C 77 % 0 lf 1015,2 hPa - - - - 0,0 km/h (0 Bft)
_ Max-Zeit 00:00 12:20 07:44 00:00 16:02 02:18 07:50 00:00 11:18 00:18
Maximum _ 23,8 C 22,2 C 98 % 15 lf 1022,5 hPa 3,0 l/m 2 min 2 min 623 W/m 33,5 km/h
NO (5 Bft)
Durchschnitt _ 20,6 C 19,1 C 89 % 6 lf 1020,3 hPa #16,8 l/m #3:40 h #2:46 h 210 W/m 10,6 km/h (2 Bft)
© 2015 W. Hausmann